UAE772 OMDB-FACT

Flight info

Callsign UAE772
Flight time 9h 4m
Altitude 37000
Route ANVIX R401 GIDIS G783 UKRAG L710 KUKDI B400 VEDET UL437 VBU UP305 XOXAM UT969 ESPUV DCT UDGIM UQ60 NEXIT UQ23 OKLOK DCT ERDAS ERDAS1C
Aircraft A388/J-SADE2E3FGHIJ3J4J5M1RWXY/LB1D1

Departure

Time 2026-04-24 00:01
Airport Dubai International Airport (OMDB)

Arrival

Time 2026-04-24 09:05
Airport Cape Town International Airport (FACT)
Time Latitude Longitude Altitude Speed Heading
2026-04-23 22:53 25.25372 55.35429 26 ft 0 kts 211°
2026-04-23 23:47 25.25386 55.35439 32 ft 4 kts 211°
2026-04-23 23:47 25.25409 55.35454 32 ft 4 kts 211°
2026-04-23 23:48 25.25428 55.35467 32 ft 4 kts 225°
2026-04-23 23:48 25.25440 55.35491 32 ft 4 kts 270°
2026-04-23 23:48 25.25434 55.35518 32 ft 4 kts 301°
2026-04-23 23:48 25.25420 55.35542 32 ft 4 kts 302°
2026-04-23 23:49 25.25412 55.35557 32 ft 0 kts 302°
2026-04-23 23:51 25.25413 55.35556 32 ft 1 kts 302°
2026-04-23 23:51 25.25423 55.35538 32 ft 4 kts 302°
2026-04-23 23:52 25.25441 55.35506 32 ft 6 kts 302°
2026-04-23 23:52 25.25466 55.35462 32 ft 7 kts 302°
2026-04-23 23:52 25.25495 55.35409 27 ft 9 kts 302°
2026-04-23 23:52 25.25528 55.35349 30 ft 10 kts 302°
2026-04-23 23:53 25.25565 55.35284 31 ft 10 kts 302°
2026-04-23 23:53 25.25603 55.35215 28 ft 11 kts 302°
2026-04-23 23:53 25.25654 55.35165 31 ft 9 kts 353°
2026-04-23 23:53 25.25714 55.35179 27 ft 9 kts 27°
2026-04-23 23:54 25.25769 55.35211 29 ft 10 kts 31°
2026-04-23 23:54 25.25846 55.35263 29 ft 15 kts 31°
2026-04-23 23:54 25.25937 55.35325 26 ft 15 kts 40°
2026-04-23 23:54 25.25997 55.35410 26 ft 14 kts 69°
2026-04-23 23:55 25.26004 55.35519 27 ft 16 kts 104°
2026-04-23 23:55 25.25944 55.35637 27 ft 19 kts 122°
2026-04-23 23:55 25.25868 55.35777 27 ft 23 kts 120°
2026-04-23 23:55 25.25779 55.35945 27 ft 27 kts 120°
2026-04-23 23:56 25.25672 55.36119 28 ft 28 kts 118°
2026-04-23 23:56 25.25576 55.36295 27 ft 26 kts 123°
2026-04-23 23:56 25.25480 55.36460 27 ft 25 kts 122°
2026-04-23 23:56 25.25390 55.36621 26 ft 24 kts 121°
2026-04-23 23:57 25.25305 55.36778 27 ft 23 kts 121°
2026-04-23 23:57 25.25220 55.36925 27 ft 22 kts 124°
2026-04-23 23:57 25.25137 55.37066 28 ft 21 kts 120°
2026-04-23 23:57 25.25064 55.37204 28 ft 21 kts 120°
2026-04-23 23:58 25.24986 55.37345 29 ft 22 kts 122°
2026-04-23 23:58 25.24903 55.37488 28 ft 22 kts 123°
2026-04-23 23:58 25.24820 55.37632 28 ft 22 kts 121°
2026-04-23 23:58 25.24744 55.37774 28 ft 21 kts 121°
2026-04-23 23:59 25.24677 55.37893 27 ft 13 kts 114°
2026-04-23 23:59 25.24696 55.37967 28 ft 10 kts 37°
2026-04-23 23:59 25.24746 55.38007 29 ft 8 kts 29°
2026-04-23 23:59 25.24793 55.38012 30 ft 8 kts 340°
2026-04-24 00:00 25.24842 55.37957 30 ft 18 kts 302°
2026-04-24 00:00 25.25009 55.37656 31 ft 80 kts 302°
2026-04-24 00:00 25.25407 55.36941 30 ft 135 kts 300°
2026-04-24 00:00 25.25978 55.35945 28 ft 167 kts 301°
2026-04-24 00:01 25.26543 55.34939 34 ft 179 kts 305°
2026-04-24 00:01 25.27126 55.33880 716 ft 150 kts 302°
2026-04-24 00:01 25.27618 55.32811 965 ft 169 kts 302°
2026-04-24 00:01 25.28204 55.31628 1206 ft 177 kts 295°
2026-04-24 00:02 25.28622 55.30385 1743 ft 171 kts 287°
2026-04-24 00:02 25.28863 55.29079 2014 ft 184 kts 277°
2026-04-24 00:02 25.28907 55.27523 1942 ft 218 kts 259°
2026-04-24 00:02 25.28393 55.25922 2221 ft 230 kts 246°
2026-04-24 00:03 25.27665 55.24298 2730 ft 237 kts 240°
2026-04-24 00:03 25.26868 55.22757 3415 ft 231 kts 241°
2026-04-24 00:03 25.26093 55.21177 3995 ft 230 kts 243°
2026-04-24 00:03 25.25352 55.19550 4284 ft 244 kts 244°
2026-04-24 00:04 25.24504 55.17928 4714 ft 247 kts 228°
2026-04-24 00:04 25.23091 55.16875 5266 ft 249 kts 199°
2026-04-24 00:04 25.21363 55.16698 5790 ft 253 kts 177°
2026-04-24 00:04 25.19643 55.16974 6304 ft 256 kts 163°
2026-04-24 00:05 25.18118 55.17995 6779 ft 263 kts 136°
2026-04-24 00:05 25.17094 55.19714 7231 ft 272 kts 120°
2026-04-24 00:05 25.16216 55.21639 7382 ft 290 kts 119°
2026-04-24 00:05 25.15300 55.23656 7787 ft 295 kts 120°
2026-04-24 00:06 25.14367 55.25667 8298 ft 297 kts 120°
2026-04-24 00:06 25.13403 55.27705 8792 ft 300 kts 121°
2026-04-24 00:06 25.12424 55.29749 9308 ft 303 kts 121°
2026-04-24 00:06 25.11432 55.31812 9791 ft 306 kts 121°
2026-04-24 00:07 25.10466 55.33879 10244 ft 309 kts 117°
2026-04-24 00:07 25.09569 55.36084 10712 ft 312 kts 117°
2026-04-24 00:07 25.08689 55.38232 11180 ft 314 kts 117°
2026-04-24 00:07 25.07765 55.40477 11652 ft 317 kts 117°
2026-04-24 00:08 25.06862 55.42671 12070 ft 323 kts 116°
2026-04-24 00:08 25.05947 55.45006 12210 ft 338 kts 115°
2026-04-24 00:08 25.05022 55.47439 12342 ft 351 kts 115°
2026-04-24 00:08 25.04055 55.49983 12481 ft 365 kts 115°
2026-04-24 00:09 25.03056 55.52597 12809 ft 372 kts 115°
2026-04-24 00:09 25.02037 55.55206 13310 ft 373 kts 118°
2026-04-24 00:09 25.00756 55.57700 13736 ft 375 kts 123°
2026-04-24 00:09 24.99413 55.60145 14171 ft 377 kts 123°
2026-04-24 00:10 24.98060 55.62644 14589 ft 380 kts 122°
2026-04-24 00:10 24.96691 55.65181 15023 ft 382 kts 122°
2026-04-24 00:10 24.95345 55.67677 15432 ft 385 kts 122°
2026-04-24 00:10 24.93936 55.70226 15845 ft 387 kts 126°
2026-04-24 00:11 24.92356 55.72612 16226 ft 389 kts 128°
2026-04-24 00:11 24.90746 55.75027 16664 ft 392 kts 128°
2026-04-24 00:11 24.89137 55.77451 17072 ft 394 kts 128°
2026-04-24 00:11 24.87513 55.79902 17489 ft 397 kts 128°
2026-04-24 00:12 24.85874 55.82374 17874 ft 400 kts 128°
2026-04-24 00:12 24.84238 55.84841 18288 ft 401 kts 128°
2026-04-24 00:12 24.82580 55.87322 18632 ft 403 kts 128°
2026-04-24 00:12 24.80894 55.89803 18983 ft 404 kts 130°
2026-04-24 00:13 24.78903 55.91956 19277 ft 402 kts 147°
2026-04-24 00:13 24.76449 55.93396 19649 ft 399 kts 163°
2026-04-24 00:13 24.73755 55.94010 19964 ft 395 kts 180°
2026-04-24 00:13 24.71000 55.93956 20324 ft 394 kts 186°
2026-04-24 00:14 24.68258 55.93751 20665 ft 396 kts 186°
2026-04-24 00:14 24.65496 55.93565 20994 ft 398 kts 185°
2026-04-24 00:14 24.62761 55.93373 21337 ft 397 kts 191°
2026-04-24 00:14 24.60109 55.92596 21633 ft 396 kts 205°
2026-04-24 00:15 24.57716 55.91120 21955 ft 395 kts 219°
2026-04-24 00:15 24.55639 55.89148 22289 ft 395 kts 223°
2026-04-24 00:15 24.53580 55.87143 22599 ft 397 kts 222°
2026-04-24 00:15 24.51494 55.85132 22929 ft 398 kts 222°
2026-04-24 00:16 24.49398 55.83119 23246 ft 400 kts 222°
2026-04-24 00:16 24.47306 55.81110 23543 ft 402 kts 222°
2026-04-24 00:16 24.45191 55.79078 23804 ft 403 kts 222°
2026-04-24 00:16 24.43076 55.77045 24033 ft 406 kts 222°
2026-04-24 00:17 24.40958 55.75011 24299 ft 407 kts 223°
2026-04-24 00:17 24.38813 55.72952 24558 ft 409 kts 223°
2026-04-24 00:17 24.36688 55.70912 24815 ft 411 kts 223°
2026-04-24 00:17 24.34505 55.68817 25073 ft 413 kts 223°
2026-04-24 00:18 24.32347 55.66747 25335 ft 414 kts 223°
2026-04-24 00:18 24.30193 55.64682 25602 ft 416 kts 223°
2026-04-24 00:18 24.27958 55.62644 25859 ft 419 kts 217°
2026-04-24 00:18 24.25470 55.60957 26138 ft 424 kts 209°
2026-04-24 00:19 24.22751 55.59685 26432 ft 428 kts 201°
2026-04-24 00:19 24.19850 55.58793 26707 ft 432 kts 197°
2026-04-24 00:19 24.16974 55.57951 26998 ft 434 kts 198°
2026-04-24 00:19 24.14053 55.57078 27298 ft 436 kts 198°
2026-04-24 00:20 24.11114 55.56195 27607 ft 439 kts 198°
2026-04-24 00:20 24.08160 55.55309 27929 ft 441 kts 198°
2026-04-24 00:20 24.05183 55.54418 28246 ft 443 kts 198°
2026-04-24 00:20 24.02202 55.53526 28565 ft 446 kts 198°
2026-04-24 00:21 23.99193 55.52629 28888 ft 449 kts 198°
2026-04-24 00:21 23.96161 55.51727 29156 ft 452 kts 198°
2026-04-24 00:21 23.93112 55.50821 29460 ft 455 kts 198°
2026-04-24 00:21 23.90092 55.49926 29781 ft 457 kts 198°
2026-04-24 00:22 23.87012 55.49012 30067 ft 459 kts 198°
2026-04-24 00:22 23.83923 55.48096 30363 ft 461 kts 198°
2026-04-24 00:22 23.80813 55.47173 30641 ft 464 kts 199°
2026-04-24 00:22 23.77701 55.46248 30917 ft 466 kts 199°
2026-04-24 00:23 23.74571 55.45319 31186 ft 468 kts 199°
2026-04-24 00:23 23.71415 55.44382 31473 ft 470 kts 199°
2026-04-24 00:23 23.68247 55.43442 31742 ft 472 kts 199°
2026-04-24 00:23 23.65070 55.42501 32009 ft 474 kts 199°
2026-04-24 00:24 23.61885 55.41558 32268 ft 476 kts 199°
2026-04-24 00:24 23.58674 55.40607 32536 ft 478 kts 199°
2026-04-24 00:24 23.55438 55.39702 32789 ft 483 kts 194°
2026-04-24 00:24 23.52070 55.39284 33052 ft 490 kts 185°
2026-04-24 00:25 23.48642 55.39474 33282 ft 497 kts 175°
2026-04-24 00:25 23.45231 55.40275 33539 ft 503 kts 168°
2026-04-24 00:25 23.41880 55.41262 33808 ft 504 kts 168°
2026-04-24 00:25 23.38452 55.42298 34070 ft 506 kts 167°
2026-04-24 00:26 23.35099 55.43367 34216 ft 510 kts 167°
2026-04-24 00:26 23.31684 55.44468 34411 ft 513 kts 167°
2026-04-24 00:26 23.28237 55.45572 34618 ft 515 kts 167°
2026-04-24 00:26 23.24789 55.46669 34845 ft 517 kts 167°
2026-04-24 00:27 23.17881 55.48853 34834 ft 513 kts 168°
2026-04-24 00:27 23.10987 55.51024 34843 ft 516 kts 168°
2026-04-24 00:28 23.04136 55.53179 34840 ft 516 kts 168°
2026-04-24 00:28 22.97234 55.55317 34840 ft 516 kts 168°
2026-04-24 00:29 22.90300 55.57437 34838 ft 517 kts 168°
2026-04-24 00:29 22.83365 55.59562 34841 ft 517 kts 168°
2026-04-24 00:30 22.76474 55.61673 34840 ft 517 kts 168°
2026-04-24 00:30 22.69536 55.63797 34825 ft 517 kts 168°
2026-04-24 00:31 22.62580 55.65924 34835 ft 519 kts 168°
2026-04-24 00:31 22.55615 55.68056 34837 ft 519 kts 168°
2026-04-24 00:32 22.48665 55.70183 34834 ft 519 kts 168°
2026-04-24 00:32 22.41734 55.72301 34831 ft 522 kts 168°
2026-04-24 00:33 22.34727 55.74440 34831 ft 522 kts 168°
2026-04-24 00:33 22.27736 55.76558 34836 ft 521 kts 171°
2026-04-24 00:34 22.21829 55.77569 34833 ft 514 kts 180°
2026-04-24 00:34 22.14687 55.78248 34837 ft 516 kts 179°
2026-04-24 00:35 22.07528 55.78962 34836 ft 516 kts 179°
2026-04-24 00:35 22.00363 55.79677 34839 ft 516 kts 179°
2026-04-24 00:36 21.93222 55.80386 34834 ft 516 kts 179°
2026-04-24 00:36 21.86094 55.81092 34836 ft 518 kts 179°
2026-04-24 00:37 21.78895 55.81806 34832 ft 518 kts 179°
2026-04-24 00:37 21.71722 55.82516 34841 ft 518 kts 179°
2026-04-24 00:38 21.64532 55.83225 34832 ft 519 kts 179°
2026-04-24 00:38 21.57379 55.83926 34828 ft 519 kts 179°
2026-04-24 00:39 21.50177 55.84633 34835 ft 519 kts 179°
2026-04-24 00:39 21.42989 55.85338 34844 ft 519 kts 179°
2026-04-24 00:40 21.35788 55.86043 34858 ft 519 kts 179°
2026-04-24 00:40 21.28582 55.86749 34860 ft 519 kts 179°
2026-04-24 00:41 21.21412 55.87448 34843 ft 519 kts 179°
2026-04-24 00:41 21.14202 55.88150 34842 ft 519 kts 179°
2026-04-24 00:42 21.06980 55.88852 34849 ft 521 kts 179°
2026-04-24 00:42 20.99767 55.89554 34854 ft 521 kts 179°
2026-04-24 00:43 20.92538 55.90256 34853 ft 521 kts 179°
2026-04-24 00:43 20.85321 55.90956 34847 ft 521 kts 179°
2026-04-24 00:44 20.78088 55.91658 34859 ft 522 kts 179°
2026-04-24 00:44 20.70888 55.92356 34859 ft 522 kts 179°
2026-04-24 00:45 20.63645 55.93057 34858 ft 522 kts 179°
2026-04-24 00:45 20.56399 55.93758 34852 ft 523 kts 179°
2026-04-24 00:46 20.49143 55.94459 34856 ft 523 kts 179°
2026-04-24 00:46 20.41939 55.95155 34853 ft 523 kts 179°
2026-04-24 00:47 20.34683 55.95855 34854 ft 523 kts 179°
2026-04-24 00:47 20.27420 55.96553 34850 ft 524 kts 179°
2026-04-24 00:48 20.20187 55.97241 34858 ft 524 kts 179°
2026-04-24 00:48 20.12919 55.97932 34858 ft 524 kts 179°
2026-04-24 00:49 20.05648 55.98443 34861 ft 521 kts 183°
2026-04-24 00:49 19.98374 55.98610 34858 ft 522 kts 183°
2026-04-24 00:50 19.91143 55.98792 34861 ft 522 kts 182°
2026-04-24 00:50 19.83878 55.98974 34861 ft 522 kts 182°
2026-04-24 00:51 19.76608 55.99156 34864 ft 522 kts 183°
2026-04-24 00:51 19.69365 55.99337 34868 ft 523 kts 182°
2026-04-24 00:52 19.62077 55.99519 34860 ft 523 kts 182°
2026-04-24 00:52 19.54797 55.99628 34864 ft 520 kts 188°
2026-04-24 00:53 19.51242 55.99089 34869 ft 513 kts 199°
2026-04-24 00:53 19.47897 55.97963 34869 ft 506 kts 208°
2026-04-24 00:53 19.41775 55.94442 34877 ft 500 kts 215°
2026-04-24 00:54 19.35721 55.90768 34878 ft 500 kts 215°
2026-04-24 00:54 19.29672 55.87110 34884 ft 500 kts 215°
2026-04-24 00:55 19.23622 55.83450 34887 ft 501 kts 215°
2026-04-24 00:55 19.17578 55.79795 34892 ft 501 kts 215°
2026-04-24 00:56 19.11551 55.76154 34894 ft 499 kts 215°
2026-04-24 00:56 19.05515 55.72511 34895 ft 498 kts 215°
2026-04-24 00:57 18.99490 55.68876 34894 ft 499 kts 215°
2026-04-24 00:58 18.90491 55.63455 34898 ft 498 kts 215°
2026-04-24 00:58 18.84466 55.59829 34897 ft 499 kts 215°
2026-04-24 00:59 18.78435 55.56202 34897 ft 499 kts 215°
2026-04-24 00:59 18.72390 55.52571 34897 ft 499 kts 215°
2026-04-24 01:00 18.66362 55.48952 34898 ft 499 kts 215°
2026-04-24 01:00 18.60313 55.45324 34900 ft 499 kts 215°
2026-04-24 01:01 18.54282 55.41710 34899 ft 499 kts 215°
2026-04-24 01:01 18.48287 55.38120 34897 ft 499 kts 215°
2026-04-24 01:02 18.42242 55.34503 34897 ft 499 kts 215°
2026-04-24 01:02 18.36189 55.30885 34897 ft 499 kts 215°
2026-04-24 01:03 18.30180 55.27296 34898 ft 499 kts 215°
2026-04-24 01:03 18.24125 55.23685 34898 ft 498 kts 215°
2026-04-24 01:04 18.18135 55.20114 34897 ft 498 kts 215°
2026-04-24 01:04 18.11959 55.16735 34903 ft 504 kts 208°
2026-04-24 01:05 18.05499 55.13864 34906 ft 504 kts 208°
2026-04-24 01:05 17.99044 55.10963 34905 ft 504 kts 208°
2026-04-24 01:06 17.92634 55.08084 34911 ft 504 kts 208°
2026-04-24 01:06 17.86181 55.05189 34903 ft 504 kts 208°
2026-04-24 01:07 17.79733 55.02300 34917 ft 503 kts 208°
2026-04-24 01:07 17.73281 54.99412 34917 ft 503 kts 208°
2026-04-24 01:08 17.66885 54.96550 34922 ft 502 kts 208°
2026-04-24 01:08 17.60453 54.93674 34919 ft 502 kts 208°
2026-04-24 01:09 17.54008 54.90794 34927 ft 503 kts 208°
2026-04-24 01:09 17.47553 54.87912 34930 ft 504 kts 208°
2026-04-24 01:10 17.41109 54.85040 34934 ft 503 kts 208°
2026-04-24 01:10 17.34660 54.82166 34933 ft 503 kts 208°
2026-04-24 01:11 17.28213 54.79269 34927 ft 502 kts 211°
2026-04-24 01:11 17.22293 54.75613 34932 ft 496 kts 218°
2026-04-24 01:12 17.16487 54.71709 34919 ft 495 kts 218°
2026-04-24 01:12 17.10672 54.67822 34916 ft 496 kts 218°
2026-04-24 01:13 17.04863 54.63940 34914 ft 495 kts 218°
2026-04-24 01:13 16.99070 54.60069 34908 ft 496 kts 218°
2026-04-24 01:14 16.93265 54.56194 34912 ft 496 kts 218°
2026-04-24 01:14 16.87441 54.52308 34892 ft 496 kts 218°
2026-04-24 01:15 16.81617 54.48425 34895 ft 496 kts 218°
2026-04-24 01:15 16.75830 54.44567 34878 ft 496 kts 218°
2026-04-24 01:16 16.70000 54.40684 34878 ft 496 kts 218°
2026-04-24 01:16 16.64183 54.36812 34883 ft 496 kts 218°
2026-04-24 01:17 16.58354 54.32936 34877 ft 496 kts 218°
2026-04-24 01:17 16.52547 54.29076 34881 ft 498 kts 218°
2026-04-24 01:18 16.46713 54.25202 34887 ft 498 kts 218°
2026-04-24 01:18 16.40879 54.21331 34887 ft 497 kts 218°
2026-04-24 01:19 16.35066 54.17477 34886 ft 497 kts 218°
2026-04-24 01:19 16.29219 54.13602 34887 ft 497 kts 218°
2026-04-24 01:20 16.23380 54.09735 34892 ft 497 kts 218°
2026-04-24 01:20 16.17542 54.05872 34892 ft 497 kts 218°
2026-04-24 01:21 16.11693 54.02005 34894 ft 497 kts 218°
2026-04-24 01:21 16.05842 53.98139 34894 ft 497 kts 218°
2026-04-24 01:22 16.00048 53.94313 34894 ft 497 kts 218°
2026-04-24 01:22 15.94202 53.90455 34895 ft 497 kts 218°
2026-04-24 01:23 15.88360 53.86603 34896 ft 497 kts 218°
2026-04-24 01:23 15.82528 53.82723 34895 ft 497 kts 218°
2026-04-24 01:24 15.77693 53.79480 34897 ft 497 kts 218°
2026-04-24 01:24 15.70928 53.74956 34895 ft 497 kts 218°
2026-04-24 01:25 15.66091 53.71727 34898 ft 496 kts 218°
2026-04-24 01:25 15.60279 53.67851 34888 ft 496 kts 218°
2026-04-24 01:26 15.54464 53.63974 34892 ft 497 kts 218°
2026-04-24 01:26 15.48639 53.60093 34893 ft 497 kts 218°
2026-04-24 01:27 15.42814 53.56216 34894 ft 497 kts 218°
2026-04-24 01:27 15.36977 53.52453 34892 ft 498 kts 217°
2026-04-24 01:28 15.31078 53.48696 34892 ft 498 kts 217°
2026-04-24 01:28 15.25176 53.44920 34891 ft 498 kts 217°
2026-04-24 01:29 15.19276 53.41142 34886 ft 498 kts 217°
2026-04-24 01:29 15.13382 53.37369 34889 ft 498 kts 217°
2026-04-24 01:30 15.07530 53.33626 34888 ft 498 kts 217°
2026-04-24 01:30 15.01626 53.29852 34889 ft 498 kts 217°
2026-04-24 01:31 14.95709 53.26072 34888 ft 498 kts 217°
2026-04-24 01:31 14.89840 53.22325 34886 ft 498 kts 217°
2026-04-24 01:32 14.83942 53.18563 34886 ft 499 kts 217°
2026-04-24 01:32 14.78026 53.14791 34887 ft 499 kts 217°
2026-04-24 01:33 14.72122 53.11029 34890 ft 499 kts 217°
2026-04-24 01:33 14.66214 53.07268 34883 ft 499 kts 217°
2026-04-24 01:34 14.60304 53.03481 34881 ft 499 kts 217°
2026-04-24 01:34 14.54404 52.99684 34881 ft 500 kts 217°
2026-04-24 01:35 14.48533 52.95912 34883 ft 500 kts 217°
2026-04-24 01:35 14.42631 52.92126 34881 ft 500 kts 217°
2026-04-24 01:36 14.36724 52.88338 34881 ft 500 kts 217°
2026-04-24 01:36 14.30815 52.84552 34880 ft 500 kts 217°
2026-04-24 01:37 14.24880 52.80751 34890 ft 502 kts 217°
2026-04-24 01:37 14.18990 52.76982 34883 ft 501 kts 217°
2026-04-24 01:38 14.13052 52.73184 34886 ft 501 kts 217°
2026-04-24 01:38 14.07127 52.69398 34870 ft 501 kts 217°
2026-04-24 01:39 14.01186 52.65602 34864 ft 501 kts 217°
2026-04-24 01:39 13.95286 52.61835 34864 ft 503 kts 217°
2026-04-24 01:40 13.89339 52.58042 34866 ft 503 kts 217°
2026-04-24 01:40 13.83377 52.54241 34885 ft 503 kts 217°
2026-04-24 01:41 13.77423 52.50447 34871 ft 503 kts 217°
2026-04-24 01:41 13.71504 52.46677 34878 ft 503 kts 217°
2026-04-24 01:42 13.65515 52.42865 34871 ft 503 kts 217°
2026-04-24 01:42 13.59576 52.39087 34858 ft 504 kts 217°
2026-04-24 01:43 13.53603 52.35291 34857 ft 504 kts 217°
2026-04-24 01:43 13.47641 52.31504 34864 ft 504 kts 217°
2026-04-24 01:44 13.41696 52.27729 34875 ft 504 kts 217°
2026-04-24 01:44 13.35694 52.23924 34876 ft 504 kts 217°
2026-04-24 01:45 13.29721 52.20148 34865 ft 504 kts 217°
2026-04-24 01:45 13.23774 52.16391 34864 ft 504 kts 217°
2026-04-24 01:46 13.17798 52.12618 34868 ft 504 kts 217°
2026-04-24 01:46 13.11808 52.08837 34864 ft 505 kts 217°
2026-04-24 01:47 13.05830 52.05066 34857 ft 504 kts 217°
2026-04-24 01:47 12.99868 52.01306 34858 ft 505 kts 217°
2026-04-24 01:48 12.93881 51.97534 34867 ft 505 kts 217°
2026-04-24 01:48 12.87885 51.93759 34866 ft 505 kts 217°
2026-04-24 01:49 12.81893 51.89987 34866 ft 505 kts 217°
2026-04-24 01:49 12.75890 51.86211 34856 ft 505 kts 217°
2026-04-24 01:50 12.69894 51.82441 34857 ft 505 kts 217°
2026-04-24 01:50 12.63890 51.78668 34851 ft 505 kts 216°
2026-04-24 01:51 12.57944 51.74935 34857 ft 505 kts 216°
2026-04-24 01:51 12.51941 51.71167 34855 ft 505 kts 216°
2026-04-24 01:52 12.45943 51.67405 34854 ft 505 kts 216°
2026-04-24 01:52 12.39948 51.63646 34851 ft 505 kts 216°
2026-04-24 01:53 12.33938 51.59880 34852 ft 507 kts 216°
2026-04-24 01:53 12.27954 51.56132 34855 ft 507 kts 216°
2026-04-24 01:54 12.21935 51.52365 34852 ft 507 kts 216°
2026-04-24 01:54 12.15916 51.48600 34853 ft 507 kts 216°
2026-04-24 01:55 12.09889 51.44832 34854 ft 507 kts 216°
2026-04-24 01:55 12.03902 51.41090 34851 ft 507 kts 216°
2026-04-24 01:56 11.97873 51.37322 34853 ft 507 kts 216°
2026-04-24 01:56 11.91848 51.33557 34857 ft 507 kts 216°
2026-04-24 01:57 11.85867 51.29821 34854 ft 508 kts 216°
2026-04-24 01:57 11.79825 51.26050 34860 ft 508 kts 216°
2026-04-24 01:58 11.73792 51.22287 34859 ft 509 kts 216°
2026-04-24 01:58 11.67740 51.18513 34859 ft 509 kts 216°
2026-04-24 01:59 11.61698 51.14748 34867 ft 509 kts 216°
2026-04-24 01:59 11.55671 51.10994 34865 ft 509 kts 216°
2026-04-24 02:00 11.49625 51.07229 34865 ft 509 kts 216°
2026-04-24 02:00 11.43594 51.03477 34884 ft 509 kts 216°
2026-04-24 02:01 11.37538 50.99707 34886 ft 510 kts 216°
2026-04-24 02:01 11.31464 50.95925 34889 ft 510 kts 216°
2026-04-24 02:02 11.25409 50.92155 34890 ft 510 kts 216°
2026-04-24 02:02 11.19361 50.88391 34887 ft 509 kts 216°
2026-04-24 02:03 11.10320 50.82768 34886 ft 509 kts 215°
2026-04-24 02:03 11.04278 50.79012 34889 ft 509 kts 215°
2026-04-24 02:04 10.98214 50.75246 34893 ft 509 kts 215°
2026-04-24 02:04 10.92196 50.71509 34892 ft 509 kts 215°
2026-04-24 02:05 10.86135 50.67747 34891 ft 509 kts 215°
2026-04-24 02:05 10.80071 50.63986 34887 ft 510 kts 215°
2026-04-24 02:06 10.73997 50.60219 34894 ft 510 kts 215°
2026-04-24 02:06 10.67974 50.56487 34893 ft 510 kts 215°
2026-04-24 02:07 10.61898 50.52723 34892 ft 510 kts 215°
2026-04-24 02:07 10.55822 50.48962 34895 ft 510 kts 215°
2026-04-24 02:08 10.49750 50.45204 34897 ft 510 kts 215°
2026-04-24 02:08 10.43727 50.41478 34896 ft 510 kts 214°
2026-04-24 02:09 10.37646 50.37718 34895 ft 510 kts 214°
2026-04-24 02:09 10.31588 50.33974 34891 ft 510 kts 214°
2026-04-24 02:10 10.25512 50.30221 34897 ft 510 kts 214°
2026-04-24 02:10 10.19480 50.26497 34901 ft 510 kts 214°
2026-04-24 02:11 10.13413 50.22752 34902 ft 509 kts 214°
2026-04-24 02:11 10.07360 50.19019 34906 ft 509 kts 214°
2026-04-24 02:12 10.02329 50.15916 34907 ft 509 kts 214°
2026-04-24 02:12 9.96267 50.12179 34911 ft 509 kts 214°
2026-04-24 02:13 9.90197 50.08440 34913 ft 509 kts 214°
2026-04-24 02:13 9.84162 50.04723 34918 ft 509 kts 214°
2026-04-24 02:14 9.78099 50.00991 34916 ft 509 kts 214°
2026-04-24 02:14 9.72030 49.97257 34913 ft 509 kts 214°
2026-04-24 02:15 9.65966 49.93527 34918 ft 510 kts 214°
2026-04-24 02:15 9.59936 49.89820 34913 ft 510 kts 214°
2026-04-24 02:16 9.53869 49.86092 34914 ft 510 kts 214°
2026-04-24 02:16 9.47798 49.82363 34909 ft 510 kts 214°
2026-04-24 02:17 9.41724 49.78633 34911 ft 510 kts 214°
2026-04-24 02:17 9.35650 49.74905 34911 ft 510 kts 214°
2026-04-24 02:18 9.29608 49.71199 34913 ft 510 kts 214°
2026-04-24 02:18 9.23529 49.67470 34925 ft 510 kts 214°
2026-04-24 02:19 9.17458 49.63750 34925 ft 510 kts 214°
2026-04-24 02:19 9.11381 49.60028 34907 ft 510 kts 214°
2026-04-24 02:20 9.05327 49.56322 34905 ft 510 kts 214°
2026-04-24 02:20 8.99236 49.52594 34903 ft 510 kts 214°
2026-04-24 02:21 8.93156 49.48875 34909 ft 511 kts 214°
2026-04-24 02:21 8.87078 49.45159 34925 ft 510 kts 214°
2026-04-24 02:22 8.81031 49.41462 34923 ft 510 kts 214°
2026-04-24 02:22 8.74916 49.37726 34925 ft 510 kts 214°
2026-04-24 02:23 8.68867 49.34032 34906 ft 510 kts 214°
2026-04-24 02:23 8.62792 49.30322 34903 ft 510 kts 214°
2026-04-24 02:24 8.56700 49.26606 34893 ft 511 kts 214°
2026-04-24 02:24 8.50610 49.22894 34899 ft 511 kts 214°
2026-04-24 02:25 8.44558 49.19207 34910 ft 511 kts 214°
2026-04-24 02:25 8.38463 49.15494 34914 ft 511 kts 214°
2026-04-24 02:26 8.32361 49.11778 34911 ft 511 kts 214°
2026-04-24 02:26 8.26265 49.08068 34898 ft 511 kts 214°
2026-04-24 02:27 8.20173 49.04360 34890 ft 511 kts 214°
2026-04-24 02:27 8.14123 49.00681 34891 ft 511 kts 214°
2026-04-24 02:28 8.07992 48.96953 34894 ft 511 kts 214°
2026-04-24 02:28 8.01941 48.93275 34914 ft 511 kts 214°
2026-04-24 02:29 7.95831 48.89563 34916 ft 510 kts 214°
2026-04-24 02:29 7.89734 48.85859 34912 ft 510 kts 214°
2026-04-24 02:30 7.83683 48.82185 34894 ft 511 kts 214°
2026-04-24 02:30 7.77590 48.78487 34894 ft 511 kts 214°
2026-04-24 02:31 7.71490 48.74786 34907 ft 511 kts 214°
2026-04-24 02:31 7.65410 48.71098 34915 ft 510 kts 214°
2026-04-24 02:32 7.59342 48.67418 34899 ft 510 kts 214°
2026-04-24 02:32 7.53247 48.63724 34903 ft 510 kts 214°
2026-04-24 02:33 7.47159 48.60035 34902 ft 510 kts 214°
2026-04-24 02:33 7.41077 48.56351 34902 ft 510 kts 214°
2026-04-24 02:34 7.34986 48.52663 34891 ft 509 kts 214°
2026-04-24 02:34 7.28961 48.48972 34889 ft 509 kts 214°
2026-04-24 02:35 7.22925 48.45233 34884 ft 509 kts 214°
2026-04-24 02:35 7.16870 48.41493 34885 ft 509 kts 214°
2026-04-24 02:36 7.10857 48.37785 34878 ft 509 kts 214°
2026-04-24 02:36 7.04791 48.34046 34881 ft 510 kts 214°
2026-04-24 02:37 6.98746 48.30321 34876 ft 510 kts 214°
2026-04-24 02:37 6.92699 48.26597 34876 ft 510 kts 214°
2026-04-24 02:38 6.86633 48.22861 34872 ft 510 kts 214°
2026-04-24 02:38 6.80617 48.19157 34874 ft 510 kts 214°
2026-04-24 02:39 6.74577 48.15440 34874 ft 510 kts 214°
2026-04-24 02:39 6.68514 48.11710 34873 ft 510 kts 214°
2026-04-24 02:40 6.62451 48.07980 34866 ft 510 kts 214°
2026-04-24 02:40 6.56432 48.04279 34871 ft 510 kts 214°
2026-04-24 02:41 6.50376 48.00556 34868 ft 509 kts 214°
2026-04-24 02:41 6.44320 47.96835 34871 ft 508 kts 214°
2026-04-24 02:42 6.38281 47.93125 34866 ft 509 kts 214°
2026-04-24 02:42 6.32239 47.89413 34867 ft 509 kts 214°
2026-04-24 02:43 6.26191 47.85700 34867 ft 509 kts 214°
2026-04-24 02:43 6.20180 47.82010 34865 ft 509 kts 214°
2026-04-24 02:44 6.14131 47.78297 34871 ft 508 kts 214°
2026-04-24 02:44 6.08101 47.74598 34869 ft 507 kts 214°
2026-04-24 02:45 6.02103 47.70919 34869 ft 507 kts 214°
2026-04-24 02:45 5.96074 47.67222 34871 ft 508 kts 214°
2026-04-24 02:46 5.90053 47.63530 34869 ft 507 kts 214°
2026-04-24 02:46 5.84016 47.59830 34868 ft 508 kts 214°
2026-04-24 02:47 5.77976 47.56129 34868 ft 506 kts 213°
2026-04-24 02:47 5.72001 47.52469 34871 ft 506 kts 213°
2026-04-24 02:48 5.65993 47.48789 34868 ft 506 kts 213°
2026-04-24 02:48 5.59951 47.45124 34868 ft 506 kts 213°
2026-04-24 02:49 5.53905 47.41483 34871 ft 506 kts 213°
2026-04-24 02:49 5.47861 47.37836 34867 ft 507 kts 213°
2026-04-24 02:50 5.41853 47.34208 34871 ft 507 kts 213°
2026-04-24 02:50 5.35801 47.30556 34870 ft 507 kts 213°
2026-04-24 02:51 5.29744 47.26901 34872 ft 507 kts 213°
2026-04-24 02:51 5.23738 47.23278 34870 ft 507 kts 213°
2026-04-24 02:52 5.17690 47.19630 34873 ft 507 kts 213°
2026-04-24 02:52 5.11635 47.15979 34871 ft 506 kts 213°
2026-04-24 02:53 5.05595 47.12337 34877 ft 505 kts 213°
2026-04-24 02:53 4.99593 47.08720 34875 ft 505 kts 213°
2026-04-24 02:54 4.93563 47.05086 34875 ft 505 kts 213°
2026-04-24 02:54 4.87550 47.01463 34875 ft 505 kts 213°
2026-04-24 02:55 4.81515 46.97828 34875 ft 505 kts 213°
2026-04-24 02:55 4.75498 46.94204 34871 ft 504 kts 213°
2026-04-24 02:56 4.69466 46.90573 34867 ft 506 kts 213°
2026-04-24 02:56 4.63431 46.86940 34867 ft 505 kts 213°
2026-04-24 02:57 4.57401 46.83311 34869 ft 505 kts 213°
2026-04-24 02:57 4.51411 46.79706 34872 ft 505 kts 213°
2026-04-24 02:58 4.45379 46.76077 34867 ft 506 kts 213°
2026-04-24 02:58 4.39343 46.72447 34871 ft 505 kts 213°
2026-04-24 02:59 4.33351 46.68844 34872 ft 505 kts 213°
2026-04-24 02:59 4.27337 46.65228 34868 ft 505 kts 213°
2026-04-24 03:00 4.21313 46.61606 34874 ft 505 kts 213°
2026-04-24 03:00 4.15283 46.57982 34869 ft 505 kts 213°
2026-04-24 03:01 4.10279 46.54974 34870 ft 504 kts 213°
2026-04-24 03:01 4.03295 46.50778 34871 ft 503 kts 213°
2026-04-24 03:02 3.97294 46.47173 34869 ft 503 kts 213°
2026-04-24 03:02 3.92295 46.44171 34871 ft 503 kts 213°
2026-04-24 03:03 3.86248 46.40539 34866 ft 503 kts 213°
2026-04-24 03:03 3.80279 46.36954 34870 ft 502 kts 212°
2026-04-24 03:04 3.74281 46.33354 34874 ft 503 kts 212°
2026-04-24 03:04 3.68280 46.29752 34875 ft 503 kts 212°
2026-04-24 03:05 3.62280 46.26151 34876 ft 503 kts 212°
2026-04-24 03:05 3.56295 46.22560 34877 ft 503 kts 212°
2026-04-24 03:06 3.50306 46.18967 34878 ft 503 kts 212°
2026-04-24 03:06 3.44273 46.15349 34878 ft 504 kts 213°
2026-04-24 03:07 3.38287 46.11758 34881 ft 504 kts 213°
2026-04-24 03:07 3.32275 46.08152 34881 ft 504 kts 213°
2026-04-24 03:08 3.23252 46.02742 34879 ft 505 kts 213°
2026-04-24 03:09 3.17228 45.99131 34878 ft 505 kts 213°
2026-04-24 03:09 3.11203 45.95519 34875 ft 506 kts 213°
2026-04-24 03:10 3.05146 45.91889 34874 ft 506 kts 213°
2026-04-24 03:10 2.99104 45.88268 34876 ft 506 kts 212°
2026-04-24 03:11 2.93044 45.84638 34874 ft 506 kts 213°
2026-04-24 03:11 2.87027 45.81033 34872 ft 506 kts 213°
2026-04-24 03:12 2.80986 45.77414 34874 ft 506 kts 212°
2026-04-24 03:12 2.74968 45.73810 34876 ft 506 kts 212°
2026-04-24 03:13 2.68922 45.70189 34871 ft 505 kts 212°
2026-04-24 03:13 2.62881 45.66572 34873 ft 505 kts 212°
2026-04-24 03:14 2.56855 45.62964 34870 ft 505 kts 212°
2026-04-24 03:14 2.50851 45.59369 34873 ft 505 kts 212°
2026-04-24 03:15 2.44824 45.55762 34875 ft 505 kts 212°
2026-04-24 03:15 2.38808 45.52161 34872 ft 503 kts 212°
2026-04-24 03:16 2.32784 45.48556 34869 ft 504 kts 212°
2026-04-24 03:16 2.26773 45.44958 34870 ft 504 kts 212°
2026-04-24 03:17 2.20783 45.41374 34870 ft 504 kts 212°
2026-04-24 03:17 2.14761 45.37771 34870 ft 504 kts 212°
2026-04-24 03:18 2.08741 45.34169 34871 ft 503 kts 212°
2026-04-24 03:18 2.02726 45.30571 34864 ft 503 kts 212°
2026-04-24 03:19 1.96821 45.26892 34862 ft 502 kts 216°
2026-04-24 03:19 1.91074 45.22925 34865 ft 502 kts 216°
2026-04-24 03:20 1.85295 45.18979 34866 ft 502 kts 216°
2026-04-24 03:20 1.79507 45.15068 34866 ft 502 kts 216°
2026-04-24 03:21 1.73752 45.11189 34865 ft 502 kts 216°
2026-04-24 03:21 1.67947 45.07276 34865 ft 502 kts 216°
2026-04-24 03:22 1.62158 45.03373 34863 ft 502 kts 216°
2026-04-24 03:22 1.56375 44.99474 34866 ft 502 kts 216°
2026-04-24 03:23 1.50581 44.95568 34858 ft 501 kts 216°
2026-04-24 03:23 1.44831 44.91692 34860 ft 501 kts 216°
2026-04-24 03:24 1.39053 44.87797 34859 ft 501 kts 216°
2026-04-24 03:24 1.33267 44.83897 34859 ft 501 kts 216°
2026-04-24 03:25 1.27477 44.79995 34860 ft 500 kts 216°
2026-04-24 03:25 1.21737 44.76127 34859 ft 500 kts 216°
2026-04-24 03:26 1.15965 44.72237 34860 ft 500 kts 216°
2026-04-24 03:26 1.10185 44.68342 34859 ft 500 kts 216°
2026-04-24 03:27 1.04411 44.64451 34858 ft 500 kts 216°
2026-04-24 03:27 0.98674 44.60586 34859 ft 500 kts 216°
2026-04-24 03:28 0.92904 44.56698 34860 ft 499 kts 216°
2026-04-24 03:28 0.87139 44.52814 34859 ft 500 kts 216°
2026-04-24 03:29 0.81372 44.48929 34864 ft 500 kts 216°
2026-04-24 03:29 0.75632 44.45062 34862 ft 499 kts 216°
2026-04-24 03:30 0.69859 44.41173 34862 ft 499 kts 216°
2026-04-24 03:30 0.64115 44.37303 34865 ft 498 kts 216°
2026-04-24 03:31 0.58376 44.33437 34862 ft 499 kts 216°
2026-04-24 03:31 0.52624 44.29563 34864 ft 498 kts 216°
2026-04-24 03:32 0.46869 44.25686 34866 ft 497 kts 216°
2026-04-24 03:32 0.41137 44.21825 34865 ft 497 kts 216°
2026-04-24 03:33 0.35429 44.17980 34862 ft 496 kts 216°
2026-04-24 03:33 0.29711 44.14126 34865 ft 497 kts 216°
2026-04-24 03:34 0.23987 44.10250 34865 ft 496 kts 216°
2026-04-24 03:34 0.18283 44.06387 34865 ft 495 kts 216°
2026-04-24 03:35 0.12579 44.02527 34863 ft 495 kts 216°
2026-04-24 03:35 0.06869 43.98663 34864 ft 495 kts 216°
2026-04-24 03:36 0.01152 43.94795 34866 ft 495 kts 216°
2026-04-24 03:36 -0.04523 43.90955 34867 ft 495 kts 216°
2026-04-24 03:37 -0.10231 43.87092 34867 ft 495 kts 216°
2026-04-24 03:37 -0.15933 43.83234 34867 ft 495 kts 216°
2026-04-24 03:38 -0.21644 43.79369 34867 ft 495 kts 216°
2026-04-24 03:38 -0.27354 43.75506 34870 ft 495 kts 216°
2026-04-24 03:39 -0.33072 43.71636 34870 ft 495 kts 216°
2026-04-24 03:39 -0.38746 43.67797 34870 ft 495 kts 216°
2026-04-24 03:40 -0.44453 43.63935 34870 ft 495 kts 216°
2026-04-24 03:40 -0.50151 43.60078 34870 ft 495 kts 216°
2026-04-24 03:41 -0.55870 43.56208 34875 ft 495 kts 216°
2026-04-24 03:41 -0.61532 43.52377 34873 ft 494 kts 216°
2026-04-24 03:42 -0.67232 43.48519 34873 ft 494 kts 216°
2026-04-24 03:42 -0.72944 43.44653 34872 ft 495 kts 216°
2026-04-24 03:43 -0.78599 43.40826 34873 ft 495 kts 216°
2026-04-24 03:43 -0.84312 43.36959 34872 ft 495 kts 216°
2026-04-24 03:44 -0.90003 43.33107 34874 ft 494 kts 216°
2026-04-24 03:44 -0.95703 43.29249 34873 ft 494 kts 216°
2026-04-24 03:45 -1.01400 43.25392 34872 ft 494 kts 216°
2026-04-24 03:45 -1.07101 43.21533 34872 ft 495 kts 216°
2026-04-24 03:46 -1.12771 43.17694 34873 ft 495 kts 216°
2026-04-24 03:46 -1.18483 43.13828 34873 ft 495 kts 216°
2026-04-24 03:47 -1.24154 43.09988 34875 ft 495 kts 216°
2026-04-24 03:47 -1.29861 43.06124 34876 ft 495 kts 216°
2026-04-24 03:48 -1.35568 43.02260 34880 ft 495 kts 216°
2026-04-24 03:48 -1.41253 42.98410 34880 ft 494 kts 216°
2026-04-24 03:49 -1.46964 42.94543 34878 ft 494 kts 216°
2026-04-24 03:49 -1.52619 42.90713 34878 ft 494 kts 216°
2026-04-24 03:50 -1.58318 42.86853 34878 ft 494 kts 216°
2026-04-24 03:50 -1.64003 42.83003 34878 ft 494 kts 216°
2026-04-24 03:51 -1.69705 42.79140 34879 ft 495 kts 216°
2026-04-24 03:51 -1.75415 42.75272 34875 ft 495 kts 216°
2026-04-24 03:52 -1.81129 42.71401 34879 ft 495 kts 216°
2026-04-24 03:52 -1.86794 42.67563 34878 ft 495 kts 216°
2026-04-24 03:53 -1.92510 42.63690 34875 ft 495 kts 216°
2026-04-24 03:53 -1.97259 42.60472 34877 ft 495 kts 216°
2026-04-24 03:54 -2.03880 42.55956 34881 ft 495 kts 216°
2026-04-24 03:54 -2.08608 42.52664 34880 ft 495 kts 216°
2026-04-24 03:55 -2.14265 42.48729 34878 ft 495 kts 216°
2026-04-24 03:55 -2.19899 42.44821 34878 ft 495 kts 216°
2026-04-24 03:56 -2.25522 42.40837 34883 ft 495 kts 218°
2026-04-24 03:56 -2.31103 42.36673 34880 ft 501 kts 218°
2026-04-24 03:57 -2.36690 42.32529 34881 ft 500 kts 218°
2026-04-24 03:57 -2.42282 42.28401 34881 ft 500 kts 218°
2026-04-24 03:58 -2.47888 42.24267 34886 ft 500 kts 218°
2026-04-24 03:58 -2.53451 42.20164 34884 ft 500 kts 218°
2026-04-24 03:59 -2.59048 42.16036 34881 ft 501 kts 218°
2026-04-24 03:59 -2.64662 42.11894 34884 ft 501 kts 218°
2026-04-24 04:00 -2.70269 42.07757 34884 ft 501 kts 218°
2026-04-24 04:00 -2.75855 42.03635 34888 ft 501 kts 218°
2026-04-24 04:01 -2.81456 41.99500 34887 ft 501 kts 218°
2026-04-24 04:01 -2.87061 41.95364 34883 ft 498 kts 218°
2026-04-24 04:02 -2.92631 41.91252 34886 ft 498 kts 218°
2026-04-24 04:02 -2.98209 41.87133 34887 ft 498 kts 218°
2026-04-24 04:03 -3.03792 41.83011 34892 ft 498 kts 218°
2026-04-24 04:03 -3.09325 41.78925 34892 ft 498 kts 218°
2026-04-24 04:04 -3.14957 41.74764 34892 ft 497 kts 218°
2026-04-24 04:04 -3.20481 41.70684 34891 ft 496 kts 218°
2026-04-24 04:05 -3.26033 41.66582 34890 ft 497 kts 218°
2026-04-24 04:05 -3.31607 41.62464 34889 ft 496 kts 218°
2026-04-24 04:06 -3.37169 41.58353 34895 ft 496 kts 218°
2026-04-24 04:06 -3.42706 41.54261 34893 ft 495 kts 218°
2026-04-24 04:07 -3.48178 41.50216 34895 ft 489 kts 218°
2026-04-24 04:07 -3.53672 41.46154 34895 ft 491 kts 218°
2026-04-24 04:08 -3.59142 41.42108 34898 ft 490 kts 218°
2026-04-24 04:08 -3.64630 41.38051 34898 ft 490 kts 218°
2026-04-24 04:09 -3.70126 41.33985 34894 ft 490 kts 218°
2026-04-24 04:09 -3.75595 41.29939 34894 ft 489 kts 218°
2026-04-24 04:10 -3.81068 41.25889 34900 ft 489 kts 218°
2026-04-24 04:10 -3.86508 41.21863 34901 ft 489 kts 218°
2026-04-24 04:11 -3.94731 41.15777 34902 ft 489 kts 218°
2026-04-24 04:11 -4.00240 41.11796 34901 ft 491 kts 214°
2026-04-24 04:12 -4.06105 41.08248 34897 ft 492 kts 213°
2026-04-24 04:12 -4.11927 41.04699 34898 ft 492 kts 213°
2026-04-24 04:13 -4.17765 41.01137 34900 ft 492 kts 213°
2026-04-24 04:13 -4.23628 40.97562 34900 ft 492 kts 213°
2026-04-24 04:14 -4.29479 40.93995 34900 ft 492 kts 213°
2026-04-24 04:14 -4.35324 40.90430 34903 ft 492 kts 213°
2026-04-24 04:15 -4.41140 40.86882 34905 ft 491 kts 213°
2026-04-24 04:15 -4.46985 40.83317 34906 ft 491 kts 213°
2026-04-24 04:16 -4.52832 40.79749 34903 ft 491 kts 213°
2026-04-24 04:16 -4.58668 40.76187 34903 ft 491 kts 213°
2026-04-24 04:17 -4.64469 40.72645 34906 ft 491 kts 213°
2026-04-24 04:17 -4.70317 40.69075 34906 ft 491 kts 213°
2026-04-24 04:18 -4.76168 40.65502 34906 ft 491 kts 213°
2026-04-24 04:18 -4.81944 40.61928 34904 ft 490 kts 216°
2026-04-24 04:19 -4.87344 40.57739 34904 ft 489 kts 220°
2026-04-24 04:19 -4.92699 40.53531 34909 ft 489 kts 219°
2026-04-24 04:20 -4.98040 40.49337 34903 ft 490 kts 219°
2026-04-24 04:20 -5.03409 40.45115 34906 ft 489 kts 219°
2026-04-24 04:21 -5.08772 40.40895 34908 ft 489 kts 219°
2026-04-24 04:21 -5.14248 40.36849 34911 ft 490 kts 215°
2026-04-24 04:22 -5.19961 40.33057 34912 ft 490 kts 215°
2026-04-24 04:22 -5.25598 40.29288 34911 ft 490 kts 215°
2026-04-24 04:23 -5.31272 40.25496 34912 ft 490 kts 215°
2026-04-24 04:23 -5.36947 40.21704 34911 ft 490 kts 215°
2026-04-24 04:24 -5.42625 40.17910 34911 ft 489 kts 215°
2026-04-24 04:24 -5.48304 40.14114 34910 ft 490 kts 215°
2026-04-24 04:25 -5.53932 40.10350 34920 ft 490 kts 215°
2026-04-24 04:25 -5.59611 40.06552 34918 ft 489 kts 215°
2026-04-24 04:26 -5.65274 40.02765 34917 ft 490 kts 215°
2026-04-24 04:26 -5.70943 39.98972 34915 ft 488 kts 215°
2026-04-24 04:27 -5.76596 39.95188 34916 ft 488 kts 215°
2026-04-24 04:27 -5.82230 39.91418 34915 ft 488 kts 215°
2026-04-24 04:28 -5.87884 39.87631 34920 ft 489 kts 214°
2026-04-24 04:28 -5.93536 39.83845 34920 ft 489 kts 214°
2026-04-24 04:29 -5.99163 39.80076 34918 ft 488 kts 214°
2026-04-24 04:29 -6.04813 39.76291 34917 ft 487 kts 214°
2026-04-24 04:30 -6.10456 39.72508 34916 ft 487 kts 214°
2026-04-24 04:30 -6.16081 39.68738 34917 ft 487 kts 214°
2026-04-24 04:31 -6.21718 39.64958 34911 ft 488 kts 214°
2026-04-24 04:31 -6.27362 39.61169 34911 ft 488 kts 215°
2026-04-24 04:32 -6.32981 39.57342 34910 ft 488 kts 215°
2026-04-24 04:32 -6.38593 39.53511 34911 ft 490 kts 214°
2026-04-24 04:33 -6.44241 39.49664 34914 ft 489 kts 214°
2026-04-24 04:33 -6.49873 39.45827 34913 ft 487 kts 214°
2026-04-24 04:34 -6.55489 39.42000 34914 ft 487 kts 214°
2026-04-24 04:34 -6.61058 39.38204 34917 ft 487 kts 214°
2026-04-24 04:35 -6.66678 39.34373 34914 ft 488 kts 214°
2026-04-24 04:35 -6.72308 39.30533 34916 ft 488 kts 214°
2026-04-24 04:36 -6.77927 39.26700 34916 ft 488 kts 214°
2026-04-24 04:36 -6.83542 39.22868 34911 ft 489 kts 214°
2026-04-24 04:37 -6.89207 39.19002 34911 ft 489 kts 214°
2026-04-24 04:37 -6.94640 39.14960 34911 ft 489 kts 217°
2026-04-24 04:38 -7.00045 39.10779 34916 ft 489 kts 217°
2026-04-24 04:38 -7.05437 39.06667 34933 ft 488 kts 217°
2026-04-24 04:39 -7.10897 39.02524 34941 ft 488 kts 216°
2026-04-24 04:39 -7.16295 38.98428 34942 ft 488 kts 216°
2026-04-24 04:40 -7.21727 38.94305 34938 ft 488 kts 216°
2026-04-24 04:40 -7.27142 38.90194 34942 ft 488 kts 216°
2026-04-24 04:41 -7.32572 38.86069 34945 ft 489 kts 216°
2026-04-24 04:41 -7.38014 38.81934 34944 ft 489 kts 216°
2026-04-24 04:42 -7.43410 38.77833 34943 ft 488 kts 216°
2026-04-24 04:42 -7.47945 38.74385 34945 ft 488 kts 216°
2026-04-24 04:43 -7.53376 38.70256 34947 ft 488 kts 216°
2026-04-24 04:43 -7.58773 38.66150 34946 ft 488 kts 216°
2026-04-24 04:44 -7.64243 38.61987 34944 ft 489 kts 216°
2026-04-24 04:44 -7.69634 38.57883 34944 ft 489 kts 216°
2026-04-24 04:45 -7.75062 38.53750 34950 ft 488 kts 216°
2026-04-24 04:45 -7.80462 38.49637 34950 ft 488 kts 216°
2026-04-24 04:46 -7.85927 38.45473 34946 ft 488 kts 216°
2026-04-24 04:46 -7.91324 38.41359 34946 ft 488 kts 216°
2026-04-24 04:47 -7.96741 38.37229 34949 ft 488 kts 216°
2026-04-24 04:47 -8.02165 38.33091 34949 ft 488 kts 216°
2026-04-24 04:48 -8.07556 38.28978 34950 ft 488 kts 216°
2026-04-24 04:48 -8.12972 38.24844 34955 ft 488 kts 216°
2026-04-24 04:49 -8.18405 38.20696 34958 ft 488 kts 216°
2026-04-24 04:49 -8.23814 38.16565 34967 ft 488 kts 216°
2026-04-24 04:50 -8.29234 38.12418 34965 ft 488 kts 216°
2026-04-24 04:50 -8.34653 38.08274 34969 ft 488 kts 216°
2026-04-24 04:51 -8.40041 38.04152 34974 ft 488 kts 216°
2026-04-24 04:51 -8.45463 38.00003 34979 ft 488 kts 216°
2026-04-24 04:52 -8.50870 37.95863 34986 ft 488 kts 216°
2026-04-24 04:52 -8.56270 37.91727 34984 ft 487 kts 216°
2026-04-24 04:53 -8.61670 37.87590 34988 ft 488 kts 216°
2026-04-24 04:53 -8.67080 37.83444 34993 ft 488 kts 216°
2026-04-24 04:54 -8.72488 37.79297 34990 ft 488 kts 216°
2026-04-24 04:54 -8.77891 37.75152 34994 ft 488 kts 216°
2026-04-24 04:55 -8.83296 37.71005 34990 ft 488 kts 216°
2026-04-24 04:55 -8.88683 37.66869 34996 ft 488 kts 216°
2026-04-24 04:56 -8.94131 37.62686 34996 ft 488 kts 216°
2026-04-24 04:56 -8.99497 37.58564 34995 ft 488 kts 216°
2026-04-24 04:57 -9.04903 37.54409 35001 ft 488 kts 216°
2026-04-24 04:57 -9.10325 37.50240 35002 ft 488 kts 216°
2026-04-24 04:58 -9.15735 37.46080 34996 ft 488 kts 216°
2026-04-24 04:58 -9.21130 37.41929 35002 ft 487 kts 216°
2026-04-24 04:59 -9.26505 37.37792 35002 ft 488 kts 216°
2026-04-24 04:59 -9.31904 37.33635 35005 ft 488 kts 216°
2026-04-24 05:00 -9.37313 37.29468 35004 ft 487 kts 216°
2026-04-24 05:00 -9.42699 37.25317 35010 ft 487 kts 216°
2026-04-24 05:01 -9.48080 37.21168 35009 ft 487 kts 216°
2026-04-24 05:01 -9.53466 37.17015 35010 ft 487 kts 216°
2026-04-24 05:02 -9.58860 37.12853 35011 ft 487 kts 216°
2026-04-24 05:02 -9.64247 37.08695 35007 ft 487 kts 216°
2026-04-24 05:03 -9.69636 37.04534 35014 ft 486 kts 215°
2026-04-24 05:03 -9.75022 37.00373 35016 ft 486 kts 215°
2026-04-24 05:04 -9.80385 36.96228 35022 ft 486 kts 215°
2026-04-24 05:04 -9.85779 36.92058 35017 ft 486 kts 215°
2026-04-24 05:05 -9.91123 36.87924 35019 ft 486 kts 215°
2026-04-24 05:05 -9.96493 36.83769 35028 ft 486 kts 215°
2026-04-24 05:06 -10.01869 36.79607 35027 ft 486 kts 215°
2026-04-24 05:06 -10.07257 36.75433 35028 ft 486 kts 215°
2026-04-24 05:07 -10.12622 36.71277 35035 ft 486 kts 215°
2026-04-24 05:07 -10.18018 36.67095 35035 ft 486 kts 215°
2026-04-24 05:08 -10.23344 36.62964 35039 ft 486 kts 215°
2026-04-24 05:08 -10.28720 36.58793 35041 ft 486 kts 215°
2026-04-24 05:09 -10.34107 36.54612 35051 ft 485 kts 215°
2026-04-24 05:09 -10.39473 36.50445 35050 ft 485 kts 215°
2026-04-24 05:10 -10.44829 36.46285 35051 ft 486 kts 216°
2026-04-24 05:10 -10.50205 36.42107 35061 ft 486 kts 216°
2026-04-24 05:11 -10.55577 36.37930 35062 ft 486 kts 216°
2026-04-24 05:11 -10.60914 36.33778 35061 ft 486 kts 216°
2026-04-24 05:12 -10.66299 36.29588 35062 ft 485 kts 216°
2026-04-24 05:12 -10.71645 36.25425 35064 ft 484 kts 216°
2026-04-24 05:13 -10.79608 36.19222 35068 ft 484 kts 216°
2026-04-24 05:14 -10.84936 36.15070 35067 ft 484 kts 216°
2026-04-24 05:14 -10.90294 36.10892 35067 ft 484 kts 216°
2026-04-24 05:15 -10.95659 36.06710 35065 ft 484 kts 216°
2026-04-24 05:15 -11.00979 36.02556 35064 ft 484 kts 216°
2026-04-24 05:16 -11.06365 35.98347 35064 ft 483 kts 216°
2026-04-24 05:16 -11.11666 35.94204 35066 ft 483 kts 216°
2026-04-24 05:17 -11.17016 35.90022 35064 ft 484 kts 216°
2026-04-24 05:17 -11.22352 35.85850 35064 ft 484 kts 216°
2026-04-24 05:18 -11.27690 35.81673 35064 ft 484 kts 216°
2026-04-24 05:18 -11.33007 35.77510 35078 ft 483 kts 216°
2026-04-24 05:18 -11.35689 35.75411 35358 ft 484 kts 216°
2026-04-24 05:19 -11.38354 35.73323 35853 ft 481 kts 216°
2026-04-24 05:19 -11.41005 35.71244 36329 ft 478 kts 216°
2026-04-24 05:19 -11.43610 35.69202 36754 ft 477 kts 216°
2026-04-24 05:19 -11.46243 35.67139 37023 ft 479 kts 216°
2026-04-24 05:20 -11.48860 35.65088 37068 ft 476 kts 216°
2026-04-24 05:20 -11.54200 35.60903 37069 ft 479 kts 216°
2026-04-24 05:21 -11.59447 35.56785 37071 ft 479 kts 216°
2026-04-24 05:21 -11.63873 35.53289 37072 ft 479 kts 216°
2026-04-24 05:22 -11.69129 35.49073 37075 ft 478 kts 216°
2026-04-24 05:22 -11.74326 35.44910 37064 ft 478 kts 216°
2026-04-24 05:23 -11.79593 35.40696 37066 ft 477 kts 216°
2026-04-24 05:23 -11.84810 35.36522 37064 ft 477 kts 216°
2026-04-24 05:24 -11.90034 35.32340 37067 ft 477 kts 216°
2026-04-24 05:24 -11.95255 35.28158 37068 ft 477 kts 216°
2026-04-24 05:25 -12.00458 35.23989 37070 ft 477 kts 216°
2026-04-24 05:25 -12.05692 35.19793 37072 ft 478 kts 217°
2026-04-24 05:26 -12.10914 35.15603 37080 ft 478 kts 217°
2026-04-24 05:26 -12.16147 35.11403 37077 ft 478 kts 217°
2026-04-24 05:27 -12.21392 35.07191 37085 ft 479 kts 217°
2026-04-24 05:27 -12.25750 35.03690 37080 ft 479 kts 217°
2026-04-24 05:28 -12.30998 34.99472 37084 ft 479 kts 217°
2026-04-24 05:28 -12.36226 34.95268 37086 ft 479 kts 217°
2026-04-24 05:29 -12.41445 34.91068 37078 ft 479 kts 217°
2026-04-24 05:29 -12.46678 34.86855 37077 ft 479 kts 217°
2026-04-24 05:30 -12.51911 34.82641 37066 ft 479 kts 217°
2026-04-24 05:30 -12.57145 34.78423 37069 ft 478 kts 217°
2026-04-24 05:31 -12.62397 34.74217 37072 ft 478 kts 216°
2026-04-24 05:31 -12.67722 34.70139 37060 ft 478 kts 216°
2026-04-24 05:32 -12.73034 34.66066 37059 ft 478 kts 216°
2026-04-24 05:32 -12.78364 34.61957 37061 ft 478 kts 216°
2026-04-24 05:33 -12.83628 34.57891 37063 ft 478 kts 216°
2026-04-24 05:33 -12.88960 34.53772 37071 ft 478 kts 216°
2026-04-24 05:34 -12.96896 34.47636 37072 ft 478 kts 216°
2026-04-24 05:34 -13.02210 34.43525 37080 ft 478 kts 216°
2026-04-24 05:35 -13.07529 34.39407 37086 ft 478 kts 216°
2026-04-24 05:35 -13.12834 34.35298 37086 ft 478 kts 216°
2026-04-24 05:36 -13.18144 34.31157 37097 ft 478 kts 217°
2026-04-24 05:36 -13.23371 34.26971 37097 ft 478 kts 217°
2026-04-24 05:37 -13.28631 34.22763 37103 ft 478 kts 217°
2026-04-24 05:37 -13.33881 34.18573 37115 ft 478 kts 217°
2026-04-24 05:38 -13.39128 34.14385 37136 ft 477 kts 217°
2026-04-24 05:38 -13.44370 34.10199 37141 ft 476 kts 217°
2026-04-24 05:39 -13.49599 34.06020 37128 ft 476 kts 217°
2026-04-24 05:39 -13.54822 34.01843 37121 ft 476 kts 217°
2026-04-24 05:40 -13.60022 33.97683 37139 ft 475 kts 217°
2026-04-24 05:40 -13.65270 33.93483 37134 ft 476 kts 217°
2026-04-24 05:41 -13.70455 33.89330 37159 ft 476 kts 218°
2026-04-24 05:41 -13.75692 33.85133 37174 ft 477 kts 218°
2026-04-24 05:42 -13.80948 33.80953 37178 ft 478 kts 215°
2026-04-24 05:42 -13.86571 33.77271 37185 ft 479 kts 212°
2026-04-24 05:43 -13.92211 33.73630 37152 ft 479 kts 212°
2026-04-24 05:43 -13.97870 33.69968 37156 ft 480 kts 212°
2026-04-24 05:44 -14.03499 33.66329 37167 ft 479 kts 212°
2026-04-24 05:44 -14.09183 33.62654 37163 ft 478 kts 212°
2026-04-24 05:45 -14.14775 33.59035 37155 ft 477 kts 212°
2026-04-24 05:45 -14.20413 33.55385 37147 ft 476 kts 212°
2026-04-24 05:46 -14.26011 33.51759 37143 ft 476 kts 212°
2026-04-24 05:46 -14.31628 33.48117 37139 ft 475 kts 212°
2026-04-24 05:47 -14.37209 33.44498 37150 ft 474 kts 212°
2026-04-24 05:47 -14.42776 33.40885 37146 ft 474 kts 213°
2026-04-24 05:48 -14.48350 33.37265 37145 ft 474 kts 213°
2026-04-24 05:48 -14.53940 33.33641 37132 ft 473 kts 212°
2026-04-24 05:49 -14.59536 33.30070 37132 ft 473 kts 212°
2026-04-24 05:49 -14.65136 33.26496 37129 ft 473 kts 212°
2026-04-24 05:50 -14.70746 33.22907 37135 ft 473 kts 212°
2026-04-24 05:50 -14.76318 33.19338 37133 ft 473 kts 212°
2026-04-24 05:51 -14.81921 33.15745 37127 ft 473 kts 212°
2026-04-24 05:51 -14.87507 33.12163 37129 ft 472 kts 212°
2026-04-24 05:52 -14.93080 33.08587 37116 ft 471 kts 213°
2026-04-24 05:52 -14.98700 33.05103 37115 ft 471 kts 210°
2026-04-24 05:53 -15.04399 33.01791 37117 ft 471 kts 210°
2026-04-24 05:53 -15.10103 32.98442 37112 ft 470 kts 211°
2026-04-24 05:54 -15.15775 32.95086 37110 ft 470 kts 211°
2026-04-24 05:54 -15.21462 32.91715 37112 ft 470 kts 211°
2026-04-24 05:55 -15.27141 32.88348 37115 ft 470 kts 211°
2026-04-24 05:55 -15.32802 32.84989 37118 ft 470 kts 211°
2026-04-24 05:56 -15.38473 32.81623 37120 ft 470 kts 211°
2026-04-24 05:56 -15.44152 32.78249 37116 ft 470 kts 211°
2026-04-24 05:57 -15.49831 32.74872 37114 ft 470 kts 211°
2026-04-24 05:57 -15.55469 32.71518 37114 ft 470 kts 211°
2026-04-24 05:58 -15.60987 32.67839 37110 ft 468 kts 215°
2026-04-24 05:58 -15.66358 32.64090 37111 ft 468 kts 215°
2026-04-24 05:59 -15.71768 32.60322 37124 ft 468 kts 215°
2026-04-24 05:59 -15.77181 32.56543 37122 ft 468 kts 215°
2026-04-24 06:00 -15.82576 32.52772 37124 ft 467 kts 215°
2026-04-24 06:00 -15.87958 32.49008 37120 ft 467 kts 215°
2026-04-24 06:01 -15.93347 32.45237 37115 ft 467 kts 215°
2026-04-24 06:01 -15.98728 32.41468 37124 ft 467 kts 215°
2026-04-24 06:02 -16.04127 32.37685 37122 ft 467 kts 215°
2026-04-24 06:02 -16.09527 32.33900 37134 ft 467 kts 215°
2026-04-24 06:03 -16.14868 32.30152 37135 ft 467 kts 215°
2026-04-24 06:03 -16.20268 32.26360 37141 ft 467 kts 215°
2026-04-24 06:04 -16.25661 32.22571 37143 ft 467 kts 215°
2026-04-24 06:04 -16.31039 32.18790 37144 ft 467 kts 215°
2026-04-24 06:05 -16.36434 32.14995 37167 ft 467 kts 216°
2026-04-24 06:05 -16.41806 32.11213 37161 ft 467 kts 216°
2026-04-24 06:06 -16.47244 32.07504 37157 ft 468 kts 214°
2026-04-24 06:06 -16.52762 32.03906 37171 ft 467 kts 214°
2026-04-24 06:07 -16.58267 32.00283 37168 ft 467 kts 214°
2026-04-24 06:07 -16.63749 31.96655 37179 ft 467 kts 214°
2026-04-24 06:08 -16.69204 31.93040 37181 ft 467 kts 214°
2026-04-24 06:08 -16.74697 31.89398 37190 ft 467 kts 214°
2026-04-24 06:09 -16.80194 31.85750 37191 ft 467 kts 214°
2026-04-24 06:09 -16.85639 31.82135 37197 ft 467 kts 214°
2026-04-24 06:10 -16.91118 31.78495 37197 ft 466 kts 214°
2026-04-24 06:11 -16.99344 31.73024 37209 ft 466 kts 214°
2026-04-24 06:11 -17.04812 31.69385 37213 ft 466 kts 215°
2026-04-24 06:12 -17.10280 31.65743 37211 ft 466 kts 215°
2026-04-24 06:12 -17.15730 31.62110 37217 ft 466 kts 215°
2026-04-24 06:13 -17.21193 31.58466 37219 ft 466 kts 215°
2026-04-24 06:13 -17.26665 31.54814 37219 ft 466 kts 215°
2026-04-24 06:14 -17.32125 31.51166 37233 ft 466 kts 215°
2026-04-24 06:14 -17.37586 31.47517 37240 ft 466 kts 215°
2026-04-24 06:15 -17.43050 31.43862 37240 ft 466 kts 215°
2026-04-24 06:15 -17.48490 31.40220 37247 ft 465 kts 215°
2026-04-24 06:16 -17.53038 31.37173 37245 ft 465 kts 215°
2026-04-24 06:16 -17.58494 31.33516 37234 ft 465 kts 215°
2026-04-24 06:17 -17.63917 31.29879 37241 ft 465 kts 215°
2026-04-24 06:17 -17.69373 31.26217 37249 ft 465 kts 215°
2026-04-24 06:18 -17.74815 31.22562 37298 ft 464 kts 216°
2026-04-24 06:18 -17.80252 31.18907 37285 ft 463 kts 216°
2026-04-24 06:19 -17.85667 31.15263 37288 ft 462 kts 216°
2026-04-24 06:19 -17.90718 31.11163 37285 ft 457 kts 225°
2026-04-24 06:20 -17.95082 31.06317 37282 ft 455 kts 232°
2026-04-24 06:20 -17.99072 31.01216 37279 ft 455 kts 232°
2026-04-24 06:21 -18.03108 30.96105 37281 ft 455 kts 232°
2026-04-24 06:21 -18.07143 30.90975 37301 ft 454 kts 232°
2026-04-24 06:22 -18.11173 30.85839 37285 ft 454 kts 232°
2026-04-24 06:22 -18.15161 30.80751 37284 ft 453 kts 232°
2026-04-24 06:23 -18.19158 30.75649 37270 ft 452 kts 232°
2026-04-24 06:23 -18.23167 30.70526 37271 ft 452 kts 232°
2026-04-24 06:24 -18.27156 30.65426 37269 ft 451 kts 232°
2026-04-24 06:24 -18.31144 30.60323 37264 ft 451 kts 232°
2026-04-24 06:25 -18.35108 30.55246 37265 ft 451 kts 232°
2026-04-24 06:25 -18.39126 30.50096 37264 ft 451 kts 232°
2026-04-24 06:26 -18.43080 30.45024 37266 ft 452 kts 232°
2026-04-24 06:26 -18.47064 30.39911 37291 ft 451 kts 233°
2026-04-24 06:27 -18.51038 30.34805 37289 ft 450 kts 233°
2026-04-24 06:27 -18.55009 30.29699 37280 ft 449 kts 233°
2026-04-24 06:28 -18.58941 30.24639 37260 ft 448 kts 233°
2026-04-24 06:28 -18.62888 30.19557 37261 ft 447 kts 233°
2026-04-24 06:29 -18.66851 30.14511 37255 ft 446 kts 232°
2026-04-24 06:29 -18.70817 30.09467 37251 ft 446 kts 233°
2026-04-24 06:30 -18.74773 30.04424 37257 ft 446 kts 233°
2026-04-24 06:30 -18.78712 29.99395 37255 ft 446 kts 233°
2026-04-24 06:31 -18.82658 29.94355 37273 ft 446 kts 233°
2026-04-24 06:31 -18.86612 29.89301 37274 ft 446 kts 233°
2026-04-24 06:32 -18.90554 29.84257 37283 ft 445 kts 233°
2026-04-24 06:32 -18.94601 29.79301 37280 ft 447 kts 229°
2026-04-24 06:33 -18.99021 29.74693 37276 ft 446 kts 228°
2026-04-24 06:33 -19.03425 29.70053 37274 ft 446 kts 228°
2026-04-24 06:34 -19.07819 29.65423 37278 ft 445 kts 228°
2026-04-24 06:34 -19.12214 29.60792 37276 ft 445 kts 228°
2026-04-24 06:35 -19.16575 29.56193 37272 ft 445 kts 228°
2026-04-24 06:35 -19.20961 29.51566 37294 ft 445 kts 229°
2026-04-24 06:36 -19.25346 29.46935 37296 ft 445 kts 229°
2026-04-24 06:36 -19.29732 29.42299 37282 ft 444 kts 229°
2026-04-24 06:37 -19.34102 29.37676 37291 ft 444 kts 229°
2026-04-24 06:37 -19.38476 29.33046 37278 ft 444 kts 229°
2026-04-24 06:38 -19.42820 29.28443 37275 ft 443 kts 229°
2026-04-24 06:38 -19.47177 29.23823 37283 ft 443 kts 229°
2026-04-24 06:39 -19.51540 29.19194 37293 ft 443 kts 229°
2026-04-24 06:39 -19.55870 29.14595 37296 ft 442 kts 229°
2026-04-24 06:40 -19.60221 29.09971 37273 ft 442 kts 229°
2026-04-24 06:40 -19.64564 29.05350 37273 ft 442 kts 229°
2026-04-24 06:41 -19.68901 29.00734 37270 ft 442 kts 229°
2026-04-24 06:41 -19.73239 28.96111 37294 ft 442 kts 229°
2026-04-24 06:42 -19.77575 28.91487 37308 ft 442 kts 229°
2026-04-24 06:42 -19.81909 28.86862 37308 ft 442 kts 229°
2026-04-24 06:43 -19.86231 28.82246 37310 ft 442 kts 229°
2026-04-24 06:43 -19.90555 28.77623 37307 ft 441 kts 229°
2026-04-24 06:44 -19.94902 28.72975 37322 ft 441 kts 230°
2026-04-24 06:44 -19.99215 28.68358 37304 ft 440 kts 229°
2026-04-24 06:45 -20.03930 28.64146 37295 ft 446 kts 221°
2026-04-24 06:45 -20.09274 28.60713 37290 ft 451 kts 214°
2026-04-24 06:46 -20.14755 28.57541 37285 ft 450 kts 215°
2026-04-24 06:46 -20.20249 28.54338 37283 ft 450 kts 215°
2026-04-24 06:47 -20.25745 28.51140 37302 ft 450 kts 215°
2026-04-24 06:47 -20.31242 28.47944 37286 ft 451 kts 215°
2026-04-24 06:48 -20.36744 28.44741 37293 ft 451 kts 215°
2026-04-24 06:48 -20.42253 28.41532 37291 ft 451 kts 215°
2026-04-24 06:49 -20.47766 28.38318 37293 ft 452 kts 215°
2026-04-24 06:49 -20.53283 28.35098 37294 ft 452 kts 216°
2026-04-24 06:50 -20.58809 28.31871 37322 ft 452 kts 216°
2026-04-24 06:50 -20.64309 28.28657 37296 ft 453 kts 216°
2026-04-24 06:51 -20.69869 28.25404 37297 ft 453 kts 216°
2026-04-24 06:51 -20.75382 28.22177 37298 ft 453 kts 216°
2026-04-24 06:52 -20.80906 28.18940 37286 ft 452 kts 216°
2026-04-24 06:52 -20.86425 28.15705 37286 ft 452 kts 216°
2026-04-24 06:53 -20.91937 28.12469 37304 ft 452 kts 216°
2026-04-24 06:53 -20.97452 28.09230 37284 ft 452 kts 216°
2026-04-24 06:54 -21.02976 28.05981 37277 ft 453 kts 216°
2026-04-24 06:54 -21.08469 28.02749 37279 ft 453 kts 216°
2026-04-24 06:55 -21.13992 27.99496 37280 ft 453 kts 216°
2026-04-24 06:55 -21.19504 27.96248 37281 ft 453 kts 216°
2026-04-24 06:56 -21.25047 27.92977 37305 ft 453 kts 217°
2026-04-24 06:56 -21.30563 27.89721 37290 ft 453 kts 217°
2026-04-24 06:57 -21.36097 27.86442 37291 ft 453 kts 217°
2026-04-24 06:57 -21.41635 27.83152 37290 ft 454 kts 217°
2026-04-24 06:58 -21.47125 27.79888 37288 ft 454 kts 217°
2026-04-24 06:58 -21.52646 27.76605 37288 ft 454 kts 217°
2026-04-24 06:59 -21.58182 27.73310 37310 ft 454 kts 217°
2026-04-24 06:59 -21.63708 27.70017 37282 ft 454 kts 217°
2026-04-24 07:00 -21.68320 27.67267 37281 ft 454 kts 217°
2026-04-24 07:00 -21.74743 27.63434 37285 ft 454 kts 217°
2026-04-24 07:01 -21.79347 27.60684 37286 ft 455 kts 217°
2026-04-24 07:01 -21.84887 27.57371 37278 ft 455 kts 217°
2026-04-24 07:02 -21.90416 27.54063 37304 ft 455 kts 217°
2026-04-24 07:02 -21.95938 27.50756 37293 ft 455 kts 217°
2026-04-24 07:03 -22.01494 27.47429 37290 ft 456 kts 217°
2026-04-24 07:03 -22.07034 27.44113 37269 ft 456 kts 217°
2026-04-24 07:04 -22.12592 27.40781 37268 ft 455 kts 217°
2026-04-24 07:04 -22.18095 27.37479 37278 ft 455 kts 217°
2026-04-24 07:05 -22.23610 27.34167 37290 ft 455 kts 217°
2026-04-24 07:05 -22.29160 27.30831 37273 ft 455 kts 217°
2026-04-24 07:06 -22.34692 27.27503 37270 ft 455 kts 217°
2026-04-24 07:06 -22.40240 27.24199 37269 ft 455 kts 217°
2026-04-24 07:07 -22.45797 27.20906 37265 ft 455 kts 217°
2026-04-24 07:07 -22.54136 27.15948 37267 ft 456 kts 217°
2026-04-24 07:08 -22.59687 27.12641 37251 ft 457 kts 217°
2026-04-24 07:08 -22.65268 27.09314 37263 ft 457 kts 217°
2026-04-24 07:09 -22.70850 27.05982 37265 ft 457 kts 217°
2026-04-24 07:09 -22.76426 27.02652 37265 ft 457 kts 217°
2026-04-24 07:10 -22.81947 26.99303 37267 ft 457 kts 218°
2026-04-24 07:10 -22.87484 26.95904 37267 ft 457 kts 218°
2026-04-24 07:11 -22.92997 26.92526 37267 ft 457 kts 218°
2026-04-24 07:11 -22.98551 26.89124 37263 ft 457 kts 218°
2026-04-24 07:12 -23.04085 26.85732 37247 ft 457 kts 218°
2026-04-24 07:12 -23.09630 26.82329 37246 ft 457 kts 218°
2026-04-24 07:13 -23.15172 26.78925 37245 ft 457 kts 218°
2026-04-24 07:13 -23.20697 26.75528 37289 ft 457 kts 218°
2026-04-24 07:14 -23.26256 26.72106 37243 ft 459 kts 218°
2026-04-24 07:14 -23.31786 26.68700 37248 ft 460 kts 218°
2026-04-24 07:15 -23.37373 26.65255 37258 ft 460 kts 218°
2026-04-24 07:15 -23.42917 26.61834 37256 ft 461 kts 218°
2026-04-24 07:16 -23.48490 26.58391 37263 ft 461 kts 218°
2026-04-24 07:16 -23.54089 26.54928 37259 ft 463 kts 217°
2026-04-24 07:17 -23.59689 26.51460 37247 ft 464 kts 217°
2026-04-24 07:17 -23.65308 26.47980 37254 ft 464 kts 217°
2026-04-24 07:18 -23.70929 26.44494 37258 ft 465 kts 217°
2026-04-24 07:18 -23.76584 26.41003 37265 ft 466 kts 217°
2026-04-24 07:19 -23.82196 26.37544 37262 ft 466 kts 217°
2026-04-24 07:19 -23.87742 26.33919 37261 ft 463 kts 220°
2026-04-24 07:20 -23.93179 26.30107 37262 ft 463 kts 220°
2026-04-24 07:20 -23.98605 26.26317 37267 ft 463 kts 220°
2026-04-24 07:21 -24.04022 26.22524 37269 ft 464 kts 220°
2026-04-24 07:21 -24.09477 26.18701 37271 ft 464 kts 220°
2026-04-24 07:22 -24.14917 26.14883 37268 ft 464 kts 220°
2026-04-24 07:22 -24.20320 26.11087 37258 ft 465 kts 220°
2026-04-24 07:23 -24.25801 26.07232 37267 ft 465 kts 220°
2026-04-24 07:23 -24.31261 26.03389 37270 ft 466 kts 220°
2026-04-24 07:24 -24.36710 25.99550 37271 ft 466 kts 220°
2026-04-24 07:24 -24.42137 25.95721 37280 ft 466 kts 220°
2026-04-24 07:25 -24.47577 25.91880 37283 ft 466 kts 220°
2026-04-24 07:25 -24.53068 25.87997 37272 ft 467 kts 219°
2026-04-24 07:26 -24.58528 25.84134 37268 ft 467 kts 219°
2026-04-24 07:26 -24.63733 25.79952 37272 ft 463 kts 224°
2026-04-24 07:27 -24.68877 25.75680 37278 ft 463 kts 224°
2026-04-24 07:27 -24.73985 25.71440 37278 ft 463 kts 224°
2026-04-24 07:28 -24.79116 25.67169 37306 ft 463 kts 224°
2026-04-24 07:28 -24.84256 25.62884 37338 ft 463 kts 224°
2026-04-24 07:29 -24.89409 25.58584 37304 ft 463 kts 224°
2026-04-24 07:29 -24.94545 25.54293 37299 ft 463 kts 224°
2026-04-24 07:30 -24.99650 25.50024 37294 ft 462 kts 224°
2026-04-24 07:30 -25.04769 25.45739 37293 ft 462 kts 224°
2026-04-24 07:31 -25.09890 25.41446 37284 ft 462 kts 224°
2026-04-24 07:31 -25.15012 25.37149 37281 ft 462 kts 224°
2026-04-24 07:32 -25.20147 25.32834 37304 ft 463 kts 224°
2026-04-24 07:32 -25.25251 25.28542 37288 ft 463 kts 223°
2026-04-24 07:33 -25.30371 25.24234 37278 ft 463 kts 224°
2026-04-24 07:33 -25.35293 25.19714 37257 ft 457 kts 230°
2026-04-24 07:34 -25.39423 25.14419 37276 ft 450 kts 239°
2026-04-24 07:34 -25.42827 25.08707 37269 ft 450 kts 236°
2026-04-24 07:35 -25.45028 25.06202 37258 ft 460 kts 225°
2026-04-24 07:35 -25.47575 25.04064 37252 ft 464 kts 222°
2026-04-24 07:35 -25.52759 24.99785 37267 ft 463 kts 224°
2026-04-24 07:36 -25.57745 24.95263 37263 ft 463 kts 226°
2026-04-24 07:36 -25.62650 24.90663 37269 ft 463 kts 226°
2026-04-24 07:37 -25.67591 24.86011 37278 ft 464 kts 226°
2026-04-24 07:37 -25.72486 24.81403 37283 ft 465 kts 226°
2026-04-24 07:38 -25.77414 24.76760 37287 ft 465 kts 226°
2026-04-24 07:38 -25.82347 24.72107 37279 ft 464 kts 226°
2026-04-24 07:39 -25.87308 24.67493 37290 ft 465 kts 225°
2026-04-24 07:39 -25.92277 24.62940 37260 ft 466 kts 225°
2026-04-24 07:40 -25.97264 24.58354 37259 ft 465 kts 225°
2026-04-24 07:40 -26.02261 24.53743 37260 ft 465 kts 225°
2026-04-24 07:41 -26.07245 24.49138 37255 ft 466 kts 225°
2026-04-24 07:41 -26.12222 24.44533 37255 ft 466 kts 225°
2026-04-24 07:42 -26.17212 24.39911 37259 ft 466 kts 225°
2026-04-24 07:42 -26.22183 24.35301 37263 ft 466 kts 225°
2026-04-24 07:43 -26.27137 24.30703 37260 ft 465 kts 225°
2026-04-24 07:43 -26.32104 24.26087 37256 ft 465 kts 225°
2026-04-24 07:44 -26.37079 24.21458 37256 ft 465 kts 225°
2026-04-24 07:44 -26.42048 24.16828 37254 ft 464 kts 225°
2026-04-24 07:45 -26.47006 24.12204 37245 ft 464 kts 225°
2026-04-24 07:45 -26.51965 24.07574 37245 ft 465 kts 225°
2026-04-24 07:46 -26.56099 24.03708 37245 ft 465 kts 225°
2026-04-24 07:46 -26.61868 23.98310 37238 ft 466 kts 225°
2026-04-24 07:47 -26.66841 23.93651 37234 ft 466 kts 225°
2026-04-24 07:47 -26.70978 23.89771 37238 ft 466 kts 225°
2026-04-24 07:48 -26.75955 23.85097 37229 ft 466 kts 225°
2026-04-24 07:48 -26.80896 23.80452 37229 ft 466 kts 225°
2026-04-24 07:49 -26.85868 23.75772 37228 ft 466 kts 225°
2026-04-24 07:49 -26.90846 23.71079 37217 ft 468 kts 224°
2026-04-24 07:50 -26.95817 23.66390 37218 ft 468 kts 224°
2026-04-24 07:50 -27.00806 23.61678 37212 ft 468 kts 224°
2026-04-24 07:51 -27.05778 23.56976 37214 ft 468 kts 224°
2026-04-24 07:51 -27.10725 23.52291 37219 ft 468 kts 224°
2026-04-24 07:52 -27.15702 23.47573 37212 ft 468 kts 224°
2026-04-24 07:52 -27.20683 23.42845 37229 ft 468 kts 224°
2026-04-24 07:53 -27.25661 23.38114 37208 ft 468 kts 224°
2026-04-24 07:53 -27.30631 23.33386 37198 ft 468 kts 224°
2026-04-24 07:54 -27.35596 23.28656 37211 ft 468 kts 224°
2026-04-24 07:54 -27.40539 23.23941 37212 ft 468 kts 224°
2026-04-24 07:55 -27.45464 23.19238 37203 ft 468 kts 224°
2026-04-24 07:55 -27.50457 23.14464 37200 ft 468 kts 224°
2026-04-24 07:56 -27.55397 23.09734 37205 ft 468 kts 224°
2026-04-24 07:56 -27.60367 23.04971 37203 ft 468 kts 224°
2026-04-24 07:57 -27.65330 23.00212 37204 ft 468 kts 224°
2026-04-24 07:57 -27.70426 22.95615 37199 ft 470 kts 221°
2026-04-24 07:58 -27.75589 22.91126 37203 ft 469 kts 221°
2026-04-24 07:58 -27.80732 22.86601 37203 ft 469 kts 221°
2026-04-24 07:59 -27.85883 22.82041 37215 ft 469 kts 221°
2026-04-24 07:59 -27.91027 22.77477 37197 ft 470 kts 221°
2026-04-24 08:00 -27.96179 22.72900 37198 ft 470 kts 221°
2026-04-24 08:00 -28.01323 22.68326 37188 ft 470 kts 221°
2026-04-24 08:01 -28.06446 22.63765 37188 ft 471 kts 221°
2026-04-24 08:01 -28.11600 22.59170 37185 ft 471 kts 221°
2026-04-24 08:02 -28.16757 22.54567 37184 ft 471 kts 221°
2026-04-24 08:02 -28.21918 22.49953 37193 ft 471 kts 221°
2026-04-24 08:03 -28.27029 22.45380 37191 ft 471 kts 221°
2026-04-24 08:03 -28.32176 22.40768 37188 ft 470 kts 221°
2026-04-24 08:04 -28.37299 22.36172 37182 ft 469 kts 221°
2026-04-24 08:04 -28.42429 22.31564 37174 ft 469 kts 221°
2026-04-24 08:05 -28.47517 22.26987 37167 ft 468 kts 221°
2026-04-24 08:05 -28.52624 22.22387 37162 ft 468 kts 221°
2026-04-24 08:06 -28.57737 22.17777 37152 ft 468 kts 221°
2026-04-24 08:06 -28.62835 22.13174 37152 ft 468 kts 221°
2026-04-24 08:07 -28.67935 22.08564 37154 ft 468 kts 221°
2026-04-24 08:07 -28.73014 22.03966 37153 ft 468 kts 221°
2026-04-24 08:08 -28.78115 21.99343 37158 ft 468 kts 221°
2026-04-24 08:09 -28.85776 21.92388 37168 ft 469 kts 221°
2026-04-24 08:09 -28.90883 21.87743 37167 ft 469 kts 221°
2026-04-24 08:10 -28.96012 21.83075 37165 ft 470 kts 221°
2026-04-24 08:10 -29.01091 21.78444 37145 ft 470 kts 221°
2026-04-24 08:11 -29.06191 21.73788 37161 ft 469 kts 221°
2026-04-24 08:11 -29.11275 21.69142 37160 ft 469 kts 221°
2026-04-24 08:12 -29.16395 21.64457 37144 ft 469 kts 221°
2026-04-24 08:12 -29.21469 21.59806 37153 ft 469 kts 221°
2026-04-24 08:13 -29.26553 21.55140 37142 ft 469 kts 221°
2026-04-24 08:13 -29.31645 21.50462 37140 ft 469 kts 221°
2026-04-24 08:14 -29.36750 21.45764 37136 ft 469 kts 221°
2026-04-24 08:14 -29.41799 21.41113 37133 ft 469 kts 221°
2026-04-24 08:15 -29.46892 21.36415 37128 ft 469 kts 221°
2026-04-24 08:15 -29.51990 21.31706 37135 ft 469 kts 221°
2026-04-24 08:16 -29.57052 21.27024 37125 ft 469 kts 221°
2026-04-24 08:16 -29.62139 21.22313 37127 ft 469 kts 221°
2026-04-24 08:17 -29.67222 21.17599 37125 ft 469 kts 221°
2026-04-24 08:17 -29.72275 21.12907 37119 ft 469 kts 221°
2026-04-24 08:18 -29.77355 21.08182 37124 ft 469 kts 221°
2026-04-24 08:18 -29.82435 21.03452 37114 ft 469 kts 221°
2026-04-24 08:19 -29.87493 20.98735 37109 ft 469 kts 221°
2026-04-24 08:19 -29.92584 20.93983 37111 ft 470 kts 221°
2026-04-24 08:20 -29.97678 20.89220 37115 ft 470 kts 221°
2026-04-24 08:20 -30.02756 20.84466 37104 ft 470 kts 221°
2026-04-24 08:21 -30.07812 20.79726 37107 ft 470 kts 221°
2026-04-24 08:21 -30.12882 20.74966 37109 ft 470 kts 221°
2026-04-24 08:22 -30.17974 20.70180 37099 ft 471 kts 221°
2026-04-24 08:22 -30.23057 20.65395 37100 ft 471 kts 221°
2026-04-24 08:23 -30.28109 20.60633 37101 ft 471 kts 221°
2026-04-24 08:23 -30.33175 20.55851 37096 ft 471 kts 221°
2026-04-24 08:24 -30.38249 20.51055 37096 ft 471 kts 221°
2026-04-24 08:24 -30.43333 20.46244 37089 ft 471 kts 221°
2026-04-24 08:25 -30.48407 20.41450 37086 ft 471 kts 219°
2026-04-24 08:25 -30.53949 20.37335 37085 ft 474 kts 209°
2026-04-24 08:26 -30.60007 20.34380 37079 ft 476 kts 202°
2026-04-24 08:26 -30.66240 20.31701 37072 ft 476 kts 203°
2026-04-24 08:27 -30.72459 20.29010 37084 ft 476 kts 203°
2026-04-24 08:27 -30.78495 20.26408 37075 ft 477 kts 203°
2026-04-24 08:28 -30.84803 20.23689 37075 ft 476 kts 203°
2026-04-24 08:28 -30.90997 20.21015 37076 ft 476 kts 203°
2026-04-24 08:29 -30.97222 20.18324 37069 ft 476 kts 203°
2026-04-24 08:29 -31.03447 20.15629 37073 ft 477 kts 202°
2026-04-24 08:30 -31.09662 20.12935 37077 ft 477 kts 202°
2026-04-24 08:30 -31.15820 20.10262 37081 ft 476 kts 202°
2026-04-24 08:31 -31.22027 20.07564 37076 ft 476 kts 202°
2026-04-24 08:31 -31.28231 20.04863 37082 ft 476 kts 202°
2026-04-24 08:32 -31.34351 20.02197 37074 ft 454 kts 202°
2026-04-24 08:32 -31.37237 20.00940 37074 ft 442 kts 202°
2026-04-24 08:32 -31.40115 19.99683 37076 ft 441 kts 202°
2026-04-24 08:33 -31.45843 19.97177 37075 ft 436 kts 203°
2026-04-24 08:33 -31.51512 19.94694 37075 ft 435 kts 203°
2026-04-24 08:34 -31.57147 19.92223 37069 ft 436 kts 202°
2026-04-24 08:34 -31.61931 19.90123 37061 ft 436 kts 202°
2026-04-24 08:35 -31.68524 19.87226 37048 ft 435 kts 202°
2026-04-24 08:35 -31.73428 19.85069 37051 ft 435 kts 202°
2026-04-24 08:36 -31.79088 19.82576 37048 ft 429 kts 202°
2026-04-24 08:36 -31.84602 19.80146 36624 ft 423 kts 202°
2026-04-24 08:36 -31.87338 19.78938 36245 ft 421 kts 202°
2026-04-24 08:37 -31.90096 19.77719 35878 ft 418 kts 202°
2026-04-24 08:37 -31.92846 19.76503 35502 ft 417 kts 202°
2026-04-24 08:37 -31.95568 19.75299 35147 ft 417 kts 202°
2026-04-24 08:37 -31.98250 19.74111 34802 ft 418 kts 202°
2026-04-24 08:38 -32.00969 19.72907 34452 ft 417 kts 202°
2026-04-24 08:38 -32.03675 19.71709 34100 ft 413 kts 202°
2026-04-24 08:38 -32.06368 19.70515 33716 ft 410 kts 202°
2026-04-24 08:38 -32.09020 19.69339 33328 ft 406 kts 202°
2026-04-24 08:39 -32.11647 19.68173 32936 ft 402 kts 202°
2026-04-24 08:39 -32.14261 19.67011 32556 ft 398 kts 202°
2026-04-24 08:39 -32.16835 19.65867 32179 ft 395 kts 201°
2026-04-24 08:39 -32.19366 19.64741 31817 ft 392 kts 201°
2026-04-24 08:40 -32.21943 19.63593 31432 ft 390 kts 201°
2026-04-24 08:40 -32.24476 19.62466 31071 ft 388 kts 201°
2026-04-24 08:40 -32.26964 19.61357 30720 ft 386 kts 201°
2026-04-24 08:40 -32.29468 19.60240 30361 ft 384 kts 201°
2026-04-24 08:41 -32.31965 19.59127 29995 ft 382 kts 201°
2026-04-24 08:41 -32.34439 19.58023 29577 ft 378 kts 201°
2026-04-24 08:41 -32.36883 19.56932 29167 ft 375 kts 201°
2026-04-24 08:41 -32.39321 19.55849 28752 ft 373 kts 201°
2026-04-24 08:42 -32.41758 19.54788 28356 ft 371 kts 201°
2026-04-24 08:42 -32.44175 19.53742 27971 ft 370 kts 201°
2026-04-24 08:42 -32.46583 19.52698 27583 ft 368 kts 201°
2026-04-24 08:42 -32.48982 19.51654 27193 ft 366 kts 201°
2026-04-24 08:43 -32.51364 19.50616 26822 ft 364 kts 200°
2026-04-24 08:43 -32.53740 19.49580 26453 ft 362 kts 200°
2026-04-24 08:43 -32.56107 19.48546 26075 ft 360 kts 200°
2026-04-24 08:43 -32.58449 19.47523 25717 ft 358 kts 200°
2026-04-24 08:44 -32.60789 19.46500 25361 ft 357 kts 200°
2026-04-24 08:44 -32.63114 19.45483 24997 ft 357 kts 200°
2026-04-24 08:44 -32.65477 19.44448 24658 ft 378 kts 200°
2026-04-24 08:44 -32.68005 19.43340 24317 ft 393 kts 200°
2026-04-24 08:45 -32.70569 19.42217 23972 ft 392 kts 200°
2026-04-24 08:45 -32.73119 19.41099 23636 ft 388 kts 200°
2026-04-24 08:45 -32.75640 19.39994 23242 ft 385 kts 200°
2026-04-24 08:45 -32.78151 19.38892 22825 ft 384 kts 200°
2026-04-24 08:46 -32.80661 19.37803 22435 ft 383 kts 198°
2026-04-24 08:46 -32.83232 19.36960 22038 ft 382 kts 194°
2026-04-24 08:46 -32.85796 19.36175 21665 ft 381 kts 195°
2026-04-24 08:46 -32.88364 19.35374 21291 ft 380 kts 195°
2026-04-24 08:47 -32.90888 19.34581 20915 ft 379 kts 195°
2026-04-24 08:47 -32.93436 19.33781 20541 ft 378 kts 195°
2026-04-24 08:47 -32.96003 19.32976 20181 ft 376 kts 195°
2026-04-24 08:47 -32.98495 19.32194 19823 ft 373 kts 195°
2026-04-24 08:48 -33.00992 19.31412 19461 ft 371 kts 195°
2026-04-24 08:48 -33.03497 19.30627 19110 ft 373 kts 195°
2026-04-24 08:48 -33.05988 19.29846 18763 ft 370 kts 195°
2026-04-24 08:48 -33.08459 19.29071 18423 ft 367 kts 195°
2026-04-24 08:49 -33.10959 19.28286 18043 ft 369 kts 195°
2026-04-24 08:49 -33.13458 19.27500 17649 ft 372 kts 195°
2026-04-24 08:49 -33.15963 19.26713 17262 ft 369 kts 195°
2026-04-24 08:49 -33.18428 19.25938 16875 ft 369 kts 195°
2026-04-24 08:50 -33.20914 19.25154 16470 ft 367 kts 195°
2026-04-24 08:50 -33.23351 19.24387 16205 ft 358 kts 195°
2026-04-24 08:50 -33.25733 19.23639 16088 ft 346 kts 195°
2026-04-24 08:50 -33.28016 19.22919 15971 ft 334 kts 196°
2026-04-24 08:51 -33.30237 19.22218 15865 ft 324 kts 195°
2026-04-24 08:51 -33.32368 19.21545 15588 ft 320 kts 196°
2026-04-24 08:51 -33.34558 19.20853 15168 ft 321 kts 196°
2026-04-24 08:51 -33.36722 19.20168 14824 ft 320 kts 196°
2026-04-24 08:52 -33.38850 19.19494 14485 ft 319 kts 196°
2026-04-24 08:52 -33.40953 19.18642 14097 ft 318 kts 207°
2026-04-24 08:52 -33.42817 19.17255 13760 ft 315 kts 220°
2026-04-24 08:52 -33.44455 19.15522 13368 ft 313 kts 223°
2026-04-24 08:53 -33.46091 19.13803 13010 ft 312 kts 223°
2026-04-24 08:53 -33.47732 19.12105 12668 ft 311 kts 223°
2026-04-24 08:53 -33.49365 19.10418 12340 ft 309 kts 223°
2026-04-24 08:53 -33.50987 19.08739 11999 ft 307 kts 223°
2026-04-24 08:54 -33.52597 19.07071 11650 ft 306 kts 223°
2026-04-24 08:54 -33.54190 19.05417 11296 ft 305 kts 223°
2026-04-24 08:54 -33.55786 19.03759 10955 ft 303 kts 223°
2026-04-24 08:54 -33.57372 19.02109 10618 ft 302 kts 223°
2026-04-24 08:55 -33.58867 19.00351 10263 ft 299 kts 234°
2026-04-24 08:55 -33.59944 18.98245 9917 ft 294 kts 248°
2026-04-24 08:55 -33.60670 18.95966 9532 ft 292 kts 252°
2026-04-24 08:55 -33.61396 18.93693 9169 ft 291 kts 251°
2026-04-24 08:56 -33.62124 18.91473 8827 ft 289 kts 251°
2026-04-24 08:56 -33.62876 18.89193 8450 ft 288 kts 251°
2026-04-24 08:56 -33.63592 18.87016 8303 ft 278 kts 251°
2026-04-24 08:56 -33.64290 18.84893 8216 ft 263 kts 251°
2026-04-24 08:57 -33.64937 18.82914 8053 ft 254 kts 252°
2026-04-24 08:57 -33.65576 18.80950 7783 ft 251 kts 252°
2026-04-24 08:57 -33.66215 18.78981 7450 ft 250 kts 252°
2026-04-24 08:57 -33.66849 18.77031 7147 ft 250 kts 252°
2026-04-24 08:58 -33.67488 18.75066 6768 ft 253 kts 252°
2026-04-24 08:58 -33.68113 18.73148 6471 ft 252 kts 252°
2026-04-24 08:58 -33.68759 18.71166 6110 ft 242 kts 252°
2026-04-24 08:58 -33.69350 18.69360 5220 ft 233 kts 252°
2026-04-24 08:59 -33.69942 18.67534 4124 ft 236 kts 252°
2026-04-24 08:59 -33.70538 18.65698 3438 ft 235 kts 252°
2026-04-24 08:59 -33.71185 18.63892 3107 ft 239 kts 241°
2026-04-24 08:59 -33.72385 18.62502 2968 ft 245 kts 215°
2026-04-24 09:00 -33.73831 18.61446 2919 ft 234 kts 213°
2026-04-24 09:00 -33.75184 18.60443 2933 ft 225 kts 214°
2026-04-24 09:00 -33.76484 18.59483 2939 ft 224 kts 214°
2026-04-24 09:00 -33.77837 18.58486 2931 ft 223 kts 213°
2026-04-24 09:01 -33.79163 18.57509 2939 ft 223 kts 214°
2026-04-24 09:01 -33.80531 18.56627 2930 ft 225 kts 198°
2026-04-24 09:01 -33.82085 18.56377 2938 ft 226 kts 188°
2026-04-24 09:01 -33.83578 18.56171 2782 ft 209 kts 178°
2026-04-24 09:02 -33.84910 18.56473 2477 ft 183 kts 165°
2026-04-24 09:02 -33.86076 18.56873 2248 ft 167 kts 165°
2026-04-24 09:02 -33.87179 18.57202 2022 ft 161 kts 164°
2026-04-24 09:02 -33.88248 18.57555 1802 ft 158 kts 165°
2026-04-24 09:03 -33.89313 18.57883 1590 ft 158 kts 164°
2026-04-24 09:03 -33.90375 18.58227 1362 ft 157 kts 165°
2026-04-24 09:03 -33.91430 18.58557 1139 ft 155 kts 165°
2026-04-24 09:03 -33.92465 18.58888 939 ft 152 kts 164°
2026-04-24 09:04 -33.93477 18.59208 735 ft 149 kts 165°
2026-04-24 09:04 -33.94475 18.59527 532 ft 147 kts 164°
2026-04-24 09:04 -33.95458 18.59838 324 ft 146 kts 164°
2026-04-24 09:04 -33.96441 18.60153 168 ft 139 kts 169°
2026-04-24 09:05 -33.97229 18.60398 158 ft 86 kts 165°
2026-04-24 09:05 -33.97636 18.60530 158 ft 49 kts 165°
2026-04-24 09:05 -33.97928 18.60626 159 ft 39 kts 165°
2026-04-24 09:05 -33.98172 18.60696 159 ft 33 kts 161°
2026-04-24 09:06 -33.98378 18.60770 162 ft 29 kts 169°
2026-04-24 09:06 -33.98568 18.60818 158 ft 27 kts 166°
2026-04-24 09:06 -33.98709 18.60858 160 ft 14 kts 172°
2026-04-24 09:06 -33.98762 18.60833 160 ft 9 kts 237°
2026-04-24 09:07 -33.98795 18.60749 159 ft 13 kts 254°
2026-04-24 09:07 -33.98772 18.60650 159 ft 14 kts 310°
2026-04-24 09:07 -33.98575 18.60554 159 ft 18 kts 339°
2026-04-24 09:08 -33.98453 18.60510 159 ft 19 kts 339°
2026-04-24 09:08 -33.98322 18.60450 159 ft 21 kts 339°
2026-04-24 09:08 -33.98178 18.60387 159 ft 23 kts 340°
2026-04-24 09:08 -33.98025 18.60320 159 ft 24 kts 340°
2026-04-24 09:09 -33.97865 18.60258 159 ft 25 kts 340°
2026-04-24 09:09 -33.97701 18.60186 159 ft 25 kts 340°
2026-04-24 09:09 -33.97534 18.60108 159 ft 26 kts 334°
2026-04-24 09:09 -33.97364 18.60037 159 ft 26 kts 347°
2026-04-24 09:10 -33.97188 18.59983 159 ft 26 kts 345°
2026-04-24 09:10 -33.97014 18.59939 159 ft 21 kts 346°
2026-04-24 09:10 -33.96953 18.59921 159 ft 13 kts 344°
2026-04-24 09:10 -33.96822 18.59875 159 ft 10 kts 344°
2026-04-24 09:11 -33.96751 18.59841 159 ft 10 kts 298°
2026-04-24 09:11 -33.96756 18.59800 159 ft 6 kts 234°
2026-04-24 09:11 -33.96763 18.59786 159 ft 3 kts 248°
2026-04-24 09:11 -33.96766 18.59777 159 ft 0 kts 250°
2026-04-24 09:13 -33.96769 18.59766 159 ft 0 kts 253°